GFSFLT2_sfc_dewp_021.txt.gz
Dewpoint
68 68 69 69 68 68 67 67 67 67 66 66 65 64 63 63 62 61 61 63 62 62 62 63 62 62 62 61 58 55 47 46
66 68 67 68 68 67 66 66 66 66 65 64 63 63 63 62 61 62 62 62 62 62 63 63 62 61 61 61 58 54 48 46
66 66 67 67 66 66 65 66 65 65 64 63 62 60 60 60 61 62 62 63 62 62 62 62 59 58 59 60 58 52 51 48
65 66 65 64 62 64 63 62 62 62 62 62 61 62 61 60 61 61 61 60 59 60 60 58 55 52 53 56 52 54 51 51
64 64 63 62 61 62 61 61 61 62 62 62 63 62 63 62 61 57 57 55 54 54 53 52 54 52 51 51 50 50 49 48
61 61 62 61 60 60 60 60 61 62 63 64 64 62 61 61 55 55 55 53 54 53 53 54 51 50 49 49 49 46 46 47
59 60 60 60 60 60 60 61 61 63 62 62 61 58 57 55 55 52 52 51 51 50 50 48 47 46 45 44 42 44 44 41
60 59 59 59 59 60 60 62 62 62 61 60 59 57 57 54 51 50 50 49 49 48 47 44 43 43 42 43 42 41 41 44
60 60 60 59 59 61 60 57 56 57 59 58 57 56 53 51 50 50 49 49 48 47 45 44 41 40 40 39 39 41 39 43
60 59 59 60 60 60 60 58 57 56 56 55 53 51 51 51 49 49 48 46 44 45 42 40 39 39 39 37 39 37 40 43
60 61 61 61 60 59 57 53 50 49 51 51 52 50 50 49 47 47 46 43 43 41 41 41 39 38 36 35 38 33 38 40
60 61 59 59 57 55 51 51 51 51 52 49 46 45 47 45 44 45 43 42 42 42 42 41 40 40 34 34 36 34 41 41
60 59 59 56 51 50 49 52 53 47 43 44 44 43 44 44 42 43 43 42 43 43 42 41 36 40 32 32 31 39 42 38
58 57 57 51 49 51 53 51 48 43 42 43 43 44 43 42 43 43 43 41 43 42 42 37 37 40 34 30 26 27 37 36
55 50 50 50 51 49 47 48 47 44 41 40 41 42 41 42 43 43 42 42 41 41 40 38 32 35 37 33 28 24 30 30
48 47 46 45 46 47 47 45 45 42 41 41 40 42 42 41 42 43 43 41 40 39 36 36 33 28 30 33 34 33 27 25
46 45 45 45 46 46 44 43 42 41 41 41 42 42 42 42 42 42 41 39 39 38 37 35 34 30 28 28 29 29 30 30
45 42 41 42 42 43 43 42 41 40 40 41 41 42 42 43 42 41 40 38 38 37 37 35 33 32 30 29 28 28 26 28
42 41 40 42 42 41 41 41 41 41 41 40 41 41 42 42 42 40 36 37 37 37 36 35 33 31 33 30 33 32 31 30
41 40 40 40 41 41 41 42 41 41 42 41 41 41 41 42 42 38 37 37 37 37 37 36 36 35 34 32 30 31 34 33

GFSFLT2_sfc_dewp_024.txt.gz
Dewpoint
67 65 67 68 68 67 67 67 67 67 66 65 64 64 64 63 62 61 61 62 62 62 63 63 62 61 61 60 56 55 47 44
67 67 66 66 67 67 66 66 66 66 65 64 63 63 63 62 63 63 62 62 62 63 62 62 60 60 60 60 59 56 47 46
66 64 65 65 63 65 65 66 65 65 63 63 61 58 59 58 62 63 62 61 61 61 61 59 59 58 59 59 60 45 47 45
65 66 66 64 60 61 59 57 58 60 60 61 60 62 61 59 61 61 58 57 59 58 57 57 54 46 46 54 46 48 45 45
65 65 65 61 58 56 55 56 60 61 63 63 63 63 64 61 57 54 57 55 53 53 52 49 51 49 47 48 47 45 43 43
61 61 61 61 55 54 57 59 61 63 63 65 65 62 63 62 54 55 57 54 54 52 50 52 50 48 47 46 45 43 40 39
58 59 59 59 59 59 61 62 62 63 63 64 62 59 61 57 57 54 53 52 50 50 49 47 46 45 45 44 42 42 42 37
58 56 58 58 60 62 61 61 59 60 62 62 62 60 59 57 55 52 52 50 49 48 47 44 43 43 42 43 43 41 42 42
59 59 59 60 61 61 61 60 60 58 60 61 60 59 57 55 53 52 51 50 49 46 46 43 42 40 40 40 39 41 39 41
61 60 60 62 62 61 60 61 60 58 59 58 55 53 55 53 51 50 49 47 45 43 43 41 40 40 41 39 39 40 40 39
61 62 61 60 60 61 61 57 53 52 54 54 53 52 51 49 48 48 47 44 44 42 42 43 42 41 39 37 37 36 35 27
61 61 61 61 61 60 53 50 51 51 50 48 47 47 48 47 46 46 44 43 44 45 45 43 41 39 34 28 32 32 32 34
61 61 62 60 59 55 51 51 50 47 46 46 46 45 45 45 43 45 46 43 45 44 40 39 36 38 37 31 30 31 37 37
60 60 60 57 53 51 50 50 49 46 45 46 44 44 43 43 44 42 43 39 42 43 42 38 35 35 35 31 26 26 26 33
58 57 57 51 51 51 51 50 47 44 44 44 43 44 42 42 42 41 40 39 36 41 40 38 34 31 32 30 28 24 26 26
53 51 49 50 49 47 47 45 45 45 44 43 42 43 40 38 40 42 42 40 40 39 34 36 34 29 29 26 31 30 25 25
50 48 47 47 48 48 46 44 43 41 41 40 41 41 41 41 41 43 43 42 40 38 36 35 32 31 29 27 28 26 27 24
48 46 45 45 44 44 43 41 36 34 36 36 34 35 37 39 40 43 43 41 39 37 38 36 35 32 28 28 26 25 23 23
46 44 43 43 41 38 38 37 37 34 35 34 36 32 32 34 37 37 38 40 38 39 37 37 35 31 30 28 28 26 25 24
44 43 39 37 36 37 39 36 35 34 34 31 30 31 30 32 34 36 39 39 39 37 36 36 36 34 32 30 27 26 25 24

GFSFLT2_sfc_dewp_027.txt.gz
Dewpoint
66 66 67 68 67 67 67 67 67 67 66 65 64 64 64 63 62 62 62 62 62 62 62 61 60 61 60 61 60 60 52 45
66 66 66 66 65 66 66 66 66 66 65 64 64 63 63 62 64 63 62 62 62 62 62 60 59 60 60 59 60 61 45 44
66 63 63 64 63 64 65 66 66 64 62 62 60 57 59 59 62 62 61 59 60 60 58 58 60 58 59 57 58 45 44 43
64 66 65 63 57 58 57 57 58 58 58 59 58 59 60 57 59 61 57 57 59 58 57 58 57 48 47 53 45 46 42 42
63 64 62 59 57 54 52 54 58 60 61 62 62 60 60 58 56 54 55 56 53 53 51 49 51 50 48 48 46 45 42 40
60 59 60 58 53 50 53 56 59 62 64 63 62 59 62 58 53 52 54 51 53 51 49 51 50 49 47 48 46 43 41 41
56 58 57 55 55 56 59 60 64 62 62 63 62 60 62 57 57 53 53 51 51 51 50 49 48 47 46 45 44 45 44 41
56 54 56 56 58 61 62 60 59 59 59 60 63 61 62 59 58 56 55 52 52 50 49 47 47 46 44 45 43 42 42 43
56 57 58 60 60 59 58 58 58 58 59 61 61 59 59 57 56 56 54 51 53 51 50 46 43 42 42 42 41 41 39 42
58 57 60 61 60 60 60 60 60 58 58 58 55 55 56 56 54 51 51 49 46 45 44 43 43 43 42 41 39 36 37 38
59 60 61 60 61 61 61 60 57 54 54 55 53 52 53 51 49 49 49 46 46 46 46 46 44 42 37 35 37 31 33 28
60 61 60 61 62 60 58 55 53 53 52 49 50 49 49 49 48 48 48 46 46 46 46 43 40 37 30 33 37 32 33 33
61 61 60 60 57 55 54 53 51 50 48 48 48 47 46 47 45 46 46 45 44 45 43 41 36 36 33 33 32 35 36 30
60 59 60 60 58 57 53 52 49 47 47 48 46 46 45 43 46 44 43 40 40 39 41 38 36 35 32 30 28 27 27 31
59 58 60 57 53 50 51 50 48 46 46 45 45 45 42 42 42 41 41 39 37 39 39 39 34 34 35 30 27 24 26 26
59 58 53 50 51 49 49 45 45 46 46 44 43 44 41 38 37 40 42 40 40 39 35 37 37 33 33 30 32 29 24 23
55 51 49 50 48 48 48 46 46 43 42 40 39 39 38 37 39 40 41 40 40 40 39 38 37 35 33 30 28 26 26 24
51 48 46 48 48 47 47 44 38 35 37 35 34 34 34 34 33 37 37 37 39 38 39 39 39 36 34 29 27 26 24 25
48 45 45 46 45 41 39 39 38 40 36 33 32 29 29 31 33 34 33 35 37 38 40 41 37 36 35 31 30 29 28 25
45 44 44 42 39 37 39 36 36 34 32 31 31 30 29 31 32 32 33 35 36 40 39 37 39 39 38 36 33 31 29 28

GFSFLT2_sfc_dewp_030.txt.gz
Dewpoint
67 67 68 67 67 67 67 66 66 65 65 65 65 65 64 64 64 64 64 63 63 63 62 61 61 61 60 60 60 61 54 52
66 66 66 65 65 66 65 65 65 64 64 63 63 63 63 64 64 64 63 62 62 61 61 60 61 59 59 57 58 58 46 48
66 65 65 64 64 64 65 65 64 63 63 63 62 59 60 61 63 63 61 61 62 61 60 58 61 60 60 60 58 46 46 47
65 65 65 63 56 61 61 61 60 59 59 60 61 63 61 59 61 61 59 59 60 60 58 59 59 51 51 54 48 48 45 45
63 63 63 58 58 58 58 59 61 62 63 64 64 63 63 61 63 57 58 59 58 56 56 53 52 52 51 50 49 46 46 44
62 61 62 60 58 56 57 60 61 65 64 63 63 63 63 61 59 57 57 56 55 55 55 54 53 51 49 50 48 47 45 45
58 60 60 59 60 61 62 64 64 65 64 63 64 62 62 61 59 57 56 55 54 54 53 51 49 47 49 47 46 46 45 46
58 57 59 59 62 63 62 61 61 61 61 62 63 62 61 60 58 56 56 52 51 51 50 48 49 49 46 47 46 45 43 42
57 57 59 61 61 60 60 59 60 60 61 62 61 59 58 57 56 54 52 52 49 49 49 48 48 46 45 45 44 42 37 38
57 56 61 60 59 59 58 60 60 59 59 57 57 57 57 54 53 53 52 53 50 48 49 48 47 46 45 42 41 37 35 37
59 61 61 60 61 62 61 61 56 56 56 55 55 54 54 54 53 53 52 50 50 50 49 47 44 42 37 34 39 37 37 32
60 62 62 61 61 60 59 58 56 55 55 53 53 52 52 52 51 50 50 49 48 48 47 45 42 40 34 34 38 38 34 36
60 61 60 60 59 58 56 55 54 54 53 52 51 51 49 50 50 49 49 46 45 43 42 42 41 41 38 35 34 33 33 35
61 60 59 60 59 57 57 54 54 52 51 51 50 49 48 48 48 46 45 43 43 43 42 41 40 40 37 35 31 31 32 30
60 60 60 60 59 57 55 54 51 49 49 49 48 47 45 44 43 44 44 44 43 43 41 40 37 38 38 35 31 29 29 30
60 60 60 59 58 53 53 49 47 49 50 49 47 47 44 41 41 43 44 44 43 43 39 40 39 37 37 35 35 32 26 24
60 60 58 54 52 53 52 49 50 48 47 45 42 44 43 40 41 43 42 42 42 42 41 39 39 38 36 35 33 31 29 27
60 58 51 52 51 52 52 49 45 43 42 41 42 41 40 40 39 39 39 39 39 40 41 40 38 38 37 36 34 30 28 27
53 49 48 50 51 48 46 43 44 42 42 40 37 36 37 37 36 37 37 37 39 40 40 39 39 38 38 37 36 33 32 31
50 47 46 47 46 44 44 43 42 40 40 35 37 35 35 35 35 36 36 36 37 38 39 40 40 38 38 38 39 36 35 33

GFSFLT2_sfc_dewp_033.txt.gz
Dewpoint
66 67 67 67 66 66 65 65 65 65 65 65 65 64 65 65 65 65 64 64 63 62 60 59 59 60 61 60 58 59 51 52
66 67 66 65 64 65 65 64 64 64 64 63 63 63 64 64 64 64 63 62 62 61 60 58 58 57 59 60 56 54 47 52
64 65 64 63 63 64 64 63 63 63 63 62 62 60 60 62 62 62 61 60 60 60 59 58 60 59 59 60 55 46 46 51
60 63 63 62 60 62 61 60 60 59 59 60 59 60 60 59 61 61 60 59 59 59 60 58 56 50 50 53 47 45 45 48
61 63 62 57 58 59 59 59 58 59 59 60 62 61 60 60 61 58 56 59 56 56 55 53 51 50 49 48 47 44 45 44
62 63 59 56 58 57 58 60 63 63 63 62 61 62 61 59 57 57 56 56 54 53 52 49 46 46 46 45 45 44 45 45
60 60 56 56 57 61 62 63 62 63 61 62 61 60 59 58 56 55 53 52 51 49 48 45 45 46 46 46 45 45 41 41
58 57 56 59 61 62 62 60 59 60 61 62 61 60 57 56 54 52 51 49 48 47 47 46 47 46 45 45 43 41 35 35
56 56 61 60 59 58 58 58 58 59 60 60 57 57 55 54 52 51 49 49 48 47 48 47 46 46 45 41 40 36 36 37
55 58 60 58 58 58 57 58 58 58 56 55 54 55 52 52 51 50 50 51 47 48 47 46 44 42 40 37 38 36 36 33
56 60 58 58 59 58 59 57 56 55 55 53 53 53 53 51 50 48 49 49 48 46 46 45 41 39 36 34 37 36 33 34
60 60 59 59 59 59 58 55 55 55 53 52 52 51 51 50 48 48 47 46 44 43 42 42 40 39 36 36 34 34 34 34
60 59 59 59 58 57 55 54 53 53 52 51 51 48 48 48 47 45 43 42 40 41 40 39 39 39 36 35 34 34 31 30
60 59 58 59 58 58 55 53 52 51 49 49 48 47 47 45 44 42 42 41 41 41 39 39 38 37 33 35 31 32 32 29
59 59 58 59 59 57 55 52 49 48 47 47 46 45 44 44 43 42 42 42 41 40 40 37 35 36 36 34 31 29 29 28
59 59 58 59 59 56 51 47 45 47 48 46 44 44 42 39 41 42 42 42 40 41 40 38 36 35 36 35 34 33 27 26
60 60 59 59 59 54 50 48 46 47 46 45 45 44 42 38 38 36 36 38 37 37 38 39 38 36 35 35 33 32 29 26
59 59 59 57 51 51 48 46 42 40 39 39 41 39 38 36 35 35 35 35 36 37 37 39 37 36 37 37 34 32 29 27
58 57 50 49 46 42 41 40 40 38 38 38 34 35 35 33 34 35 34 34 35 36 37 38 38 37 37 36 36 35 33 32
55 48 48 46 42 40 40 39 40 39 37 35 36 35 35 34 35 33 33 34 34 35 36 37 38 38 36 36 37 37 36 35

GFSFLT2_sfc_dewp_036.txt.gz
Dewpoint
65 64 65 66 66 65 65 65 65 65 65 65 65 65 65 65 65 65 64 63 62 61 60 58 59 60 60 59 58 59 52 55
62 65 63 65 64 65 64 64 65 64 64 64 63 64 64 64 64 64 63 62 61 60 59 58 60 59 59 58 55 56 50 53
61 63 64 64 63 63 64 64 64 63 63 63 62 61 61 61 61 62 61 61 59 59 58 59 58 60 58 57 52 46 49 49
61 63 63 62 61 61 60 59 59 60 59 60 59 59 60 60 61 61 60 60 59 58 59 58 54 49 49 51 45 43 45 48
61 63 62 60 59 60 59 58 58 58 58 59 59 60 60 60 60 57 54 58 56 54 50 49 47 47 46 46 45 44 45 44
61 62 61 58 58 59 58 57 59 61 62 62 61 61 60 58 58 55 55 54 51 50 48 46 46 46 46 45 44 43 40 41
59 61 61 57 57 57 59 61 62 62 61 60 60 58 57 56 55 52 51 50 48 47 46 46 47 45 45 43 42 37 35 36
59 61 58 57 60 60 62 61 60 60 61 60 60 58 55 54 51 50 48 47 47 47 47 46 46 44 43 41 37 36 36 35
60 59 58 61 60 59 58 58 58 59 59 58 58 56 54 52 50 49 49 48 47 47 47 45 43 40 38 38 38 36 35 33
57 59 60 58 58 57 57 58 58 57 56 55 54 54 52 51 49 49 50 49 48 47 45 43 40 39 36 34 37 34 33 32
58 59 58 58 57 58 57 57 57 55 54 53 53 53 52 50 48 49 48 47 46 45 45 42 39 38 37 36 34 34 34 31
59 58 58 57 58 58 56 54 54 54 52 52 51 52 51 49 48 47 45 42 41 40 39 39 39 38 35 33 34 33 32 31
59 58 58 57 57 56 54 53 53 53 52 51 51 49 50 47 44 43 42 40 41 40 39 38 38 36 34 34 35 33 31 29
59 58 58 57 57 56 54 53 53 52 51 51 48 48 46 45 43 41 41 41 40 40 38 38 38 36 33 34 30 32 32 29
58 58 57 58 58 57 53 51 49 48 47 47 46 46 45 43 42 42 42 41 40 40 38 36 35 36 36 33 30 28 30 29
59 58 58 58 58 56 52 50 48 47 47 46 44 44 43 42 42 43 42 40 38 39 39 38 36 34 36 35 33 33 29 27
59 59 58 58 58 56 52 48 47 48 47 45 44 43 40 39 38 36 37 37 36 35 36 36 38 36 35 34 34 33 30 28
59 58 58 58 58 56 51 48 46 47 45 44 43 38 38 36 35 35 35 35 35 36 36 38 37 36 36 36 35 33 31 29
58 59 58 58 55 53 49 46 45 45 42 41 37 37 36 35 35 35 35 35 34 34 34 35 36 36 36 36 36 36 34 32
58 58 54 48 45 45 43 41 41 40 40 37 38 36 35 35 35 35 34 34 33 33 35 37 36 36 34 35 36 36 36 35

GFSFLT2_sfc_dewp_039.txt.gz
Dewpoint
65 65 66 66 65 65 66 66 66 66 66 65 65 65 64 64 64 64 63 62 62 61 60 61 60 60 60 60 59 58 54 55
62 62 62 64 63 64 65 65 66 65 65 65 64 64 64 64 64 63 63 62 61 60 61 61 60 60 58 59 58 54 51 51
61 62 61 62 63 63 64 65 65 64 64 64 62 61 60 59 62 62 62 61 60 61 60 59 59 59 58 56 51 48 47 47
60 61 60 63 61 61 60 61 60 60 60 59 59 59 59 59 60 60 60 60 60 60 59 57 52 48 48 48 44 44 44 47
59 60 62 61 59 60 59 58 58 58 59 58 59 59 60 58 59 54 54 57 53 49 48 47 46 46 45 45 42 40 40 41
58 62 62 60 59 58 58 57 57 59 58 58 59 60 59 58 56 55 53 51 48 47 47 47 46 45 43 42 38 36 36 37
60 62 61 58 57 57 58 58 61 62 62 61 60 59 55 56 53 51 50 48 47 47 47 46 45 42 41 37 36 36 35 35
59 60 61 57 57 57 59 61 61 60 60 59 58 56 55 51 50 48 47 48 48 47 46 43 41 39 39 38 36 35 33 33
59 60 58 57 58 60 60 60 59 59 59 59 57 55 53 50 49 48 48 48 47 46 44 41 39 37 35 37 35 33 32 32
59 60 58 59 59 58 58 58 58 58 57 56 55 54 51 50 49 49 49 48 46 45 43 40 39 38 35 35 36 33 32 31
58 59 59 58 57 57 57 57 56 55 54 54 53 52 51 49 49 48 46 45 44 44 42 40 37 37 35 34 34 32 31 30
59 58 57 57 57 56 56 56 55 54 52 52 52 51 50 49 47 45 42 41 40 39 37 39 39 37 34 33 34 33 31 30
58 57 57 57 57 55 53 53 53 52 51 51 51 51 49 46 44 42 41 40 39 38 39 37 37 36 33 34 34 33 30 29
58 57 57 56 56 55 54 53 53 52 51 51 49 49 46 43 42 41 41 41 40 39 38 38 37 36 33 33 29 31 32 30
58 57 57 56 57 55 53 51 50 49 49 48 47 47 45 43 42 41 41 41 40 39 37 36 35 36 36 33 30 28 30 31
57 57 57 57 57 55 52 50 49 48 48 46 46 46 44 42 42 42 41 39 38 39 38 37 36 35 36 35 33 32 30 28
58 58 57 57 57 56 52 50 48 48 47 45 44 42 42 42 39 37 37 38 37 36 35 36 37 36 35 34 33 33 31 30
58 58 57 57 57 56 52 50 47 48 45 44 42 39 38 37 35 37 37 37 36 35 36 37 37 36 36 35 34 33 32 31
58 58 57 57 57 56 52 51 48 48 45 44 39 37 36 35 36 37 37 36 35 35 34 34 36 36 36 36 36 35 35 33
58 58 58 57 56 55 51 50 48 49 46 42 39 37 36 36 37 37 37 35 34 34 35 37 36 35 35 35 35 35 35 35

GFSFLT2_sfc_dewp_045.txt.gz
Dewpoint
66 65 64 64 66 66 66 66 66 66 66 66 65 65 63 63 64 64 63 62 62 63 64 63 62 61 60 59 58 57 47 49
61 61 61 63 64 66 66 66 66 66 65 64 64 63 64 64 63 63 64 63 62 62 62 62 61 59 57 56 55 54 46 45
57 58 60 62 63 65 66 66 65 64 63 63 60 56 56 56 61 62 63 63 63 61 60 59 58 57 54 51 52 46 45 45
57 59 60 60 60 63 64 64 62 61 60 59 57 60 58 57 59 62 62 61 60 58 56 54 51 44 41 44 39 41 41 43
57 58 59 60 61 62 62 60 60 61 60 59 61 59 60 57 58 57 56 54 48 49 47 45 45 42 41 42 40 39 37 36
56 58 58 59 60 60 59 58 58 59 58 60 61 59 60 57 55 56 52 50 51 48 47 47 45 43 43 42 41 37 36 36
57 60 61 61 59 59 59 59 58 60 59 60 61 59 59 57 55 52 50 50 49 47 46 43 43 42 40 39 38 38 38 37
57 58 61 60 58 58 58 59 58 59 60 60 62 61 59 56 52 50 50 49 48 46 44 43 41 40 39 38 37 36 38 43
58 59 62 60 59 57 58 59 59 62 62 63 62 60 58 55 51 50 50 49 48 46 44 42 39 37 38 36 35 37 38 44
57 59 61 60 59 58 58 60 63 62 62 61 60 57 55 53 50 50 50 49 47 45 43 41 39 39 38 37 36 34 38 42
57 60 61 60 60 60 60 61 62 61 61 58 57 55 53 52 50 51 51 48 47 44 43 42 40 38 36 37 37 34 34 31
57 59 61 61 60 59 59 60 61 60 59 57 56 53 53 52 51 51 48 46 44 42 43 42 40 40 32 36 39 34 33 34
58 60 61 59 58 58 57 58 58 57 56 56 56 53 52 52 50 48 46 45 43 44 43 42 39 41 37 37 37 36 35 33
58 59 59 59 58 58 57 58 57 56 54 54 54 54 52 50 48 46 45 43 45 44 44 41 41 41 36 35 31 32 34 35
58 58 59 60 59 57 56 56 55 53 52 52 53 52 50 48 47 46 45 44 43 44 43 40 36 40 41 35 28 25 33 35
58 59 59 59 59 57 56 55 54 54 55 54 52 51 48 45 45 46 45 44 44 43 40 40 39 35 39 37 39 36 29 28
59 59 59 59 58 58 56 56 56 55 55 53 51 49 47 45 45 45 45 43 42 41 41 40 40 39 36 38 38 37 37 32
59 59 58 59 58 58 57 56 54 53 53 51 49 49 46 45 44 44 43 40 40 39 41 41 41 39 38 38 35 32 31 32
59 58 58 58 58 57 57 56 54 54 52 51 48 48 46 45 43 42 39 39 39 40 42 41 39 40 39 37 38 37 35 32
58 57 57 58 58 58 57 56 56 55 53 52 50 48 47 45 41 39 39 41 41 43 41 38 39 39 40 39 38 36 35 33

GFSFLT2_sfc_dewp_048.txt.gz
Dewpoint
66 66 65 65 65 65 65 66 66 66 66 66 66 65 65 64 64 64 64 64 64 64 63 62 61 60 59 58 57 54 44 44
61 61 61 64 64 65 66 66 66 66 65 65 64 64 64 64 63 63 63 64 64 64 62 61 59 57 56 56 55 54 42 41
60 58 57 58 61 64 65 66 65 64 63 63 59 53 53 55 62 64 63 63 62 62 60 59 58 55 53 53 52 42 41 40
58 58 58 60 62 62 62 61 60 59 57 56 53 56 55 54 60 63 62 61 60 58 57 57 54 44 42 46 41 42 39 37
55 56 57 59 61 63 61 59 60 59 59 57 58 56 56 55 56 55 55 56 48 49 48 47 48 46 45 44 43 40 35 33
55 56 59 59 60 61 61 58 57 57 56 59 58 56 56 56 55 55 54 52 52 51 49 50 48 47 46 45 43 36 32 31
55 57 58 58 59 61 60 58 56 55 57 58 55 54 56 55 56 53 53 52 51 50 49 47 47 45 43 41 38 38 37 35
52 55 54 54 57 60 59 58 57 58 54 57 60 56 57 55 55 54 53 52 50 49 48 47 45 43 42 39 37 35 37 41
55 54 55 54 56 58 57 56 54 54 56 62 62 60 59 57 55 54 53 52 52 50 48 46 43 39 38 37 35 38 37 40
57 56 57 59 58 54 54 54 56 56 59 61 63 62 61 59 55 54 53 52 50 48 47 45 43 39 39 36 36 35 37 39
57 58 57 59 60 56 56 57 57 59 62 62 63 61 60 58 55 54 54 51 50 48 47 45 41 38 35 37 38 35 36 30
57 57 60 62 60 58 53 55 57 60 61 59 60 58 58 56 54 54 53 51 50 47 47 43 41 39 28 34 39 35 34 34
56 59 60 62 58 54 50 53 56 59 59 60 60 57 56 56 54 54 53 50 49 49 45 44 40 41 38 37 38 38 37 33
55 56 57 60 58 54 52 51 54 56 58 60 59 58 56 55 55 53 51 49 49 48 46 42 41 41 39 37 35 35 35 35
54 55 56 59 59 56 54 54 56 56 57 58 56 56 55 55 54 51 51 49 47 48 46 44 40 40 38 37 35 34 33 33
55 56 57 59 60 57 55 51 52 55 57 56 55 56 55 53 52 50 51 48 48 47 44 43 41 40 39 37 39 35 31 30
56 56 56 58 59 60 57 54 52 55 58 57 57 56 54 51 50 50 50 48 48 46 44 43 42 41 37 38 38 37 37 30
59 57 56 58 59 60 60 58 55 55 57 57 56 54 53 51 48 50 49 48 48 44 44 45 43 41 37 37 35 32 29 31
59 58 56 57 58 59 60 60 59 58 57 57 56 53 51 51 50 50 48 48 45 44 46 45 42 40 40 36 34 32 32 31
59 57 57 57 59 59 60 61 60 59 58 57 56 53 51 51 50 49 48 45 44 44 43 44 41 41 38 37 34 35 34 32

GFSFLT2_sfc_dewp_051.txt.gz
Dewpoint
66 66 65 66 66 66 66 66 66 67 67 66 66 65 65 66 67 66 65 64 64 64 63 62 60 59 58 56 55 55 44 43
64 64 64 65 65 65 65 65 66 66 66 65 65 64 64 64 65 64 64 64 64 62 62 61 58 57 56 56 54 55 41 41
62 62 62 64 64 64 64 66 65 64 64 63 59 52 52 55 62 64 64 64 63 61 60 60 58 55 54 52 53 41 39 39
57 58 60 59 61 62 63 63 61 60 58 59 54 56 56 54 61 63 63 63 62 61 59 58 55 45 44 49 42 41 36 36
56 57 58 57 59 60 61 59 58 58 60 58 59 59 58 58 58 54 55 57 50 50 51 50 50 48 47 45 42 38 34 33
56 58 59 60 60 60 60 57 58 57 59 62 61 59 60 58 54 54 54 52 51 51 51 52 51 49 47 45 42 36 34 32
56 57 57 59 60 60 59 55 54 58 58 59 59 58 60 56 56 54 54 53 53 52 52 50 49 47 44 41 38 38 38 35
56 58 58 58 57 58 58 57 56 57 59 59 62 59 60 55 56 54 54 53 53 52 50 50 48 46 43 39 38 36 38 40
56 56 56 54 53 54 53 56 55 56 56 61 61 59 59 58 57 55 54 54 54 53 52 49 47 42 40 38 36 38 37 39
52 51 53 52 54 54 53 56 56 55 55 60 61 58 58 58 56 56 55 55 53 52 50 49 46 42 40 37 37 36 37 38
52 53 50 53 56 57 58 56 52 48 54 57 60 60 61 62 57 56 57 54 53 52 51 50 46 41 38 38 40 37 36 29
56 55 56 58 60 56 53 54 54 54 56 58 60 61 61 60 57 57 57 53 53 52 51 48 45 42 30 34 41 40 36 36
55 57 58 59 55 53 49 53 53 53 56 59 60 60 60 59 56 57 56 54 54 53 51 48 43 43 41 41 41 42 39 36
55 55 55 59 57 53 51 49 50 51 54 58 58 59 58 58 57 56 56 53 54 53 51 46 45 45 42 41 40 40 38 38
54 55 56 59 58 54 51 49 50 51 52 55 58 59 58 57 57 56 56 55 53 52 50 48 44 44 44 42 40 38 39 40
54 54 54 55 56 55 54 49 47 50 52 54 57 59 59 56 56 56 55 54 54 53 49 50 47 43 43 42 43 43 36 35
56 54 53 54 56 57 55 54 50 51 54 57 59 59 58 56 56 56 54 53 53 53 52 50 45 44 43 45 43 40 41 38
56 54 53 54 55 57 58 56 54 50 54 57 58 58 57 57 55 56 55 53 52 51 52 49 46 46 42 42 42 40 39 38
57 54 52 53 55 56 58 58 57 55 54 58 57 57 56 56 55 54 53 53 51 51 50 49 46 45 45 43 43 38 37 33
56 55 55 53 56 58 59 58 59 58 59 58 58 58 58 56 54 52 52 51 51 49 46 47 46 45 43 42 43 41 39 37

GFSFLT2_sfc_dewp_054.txt.gz
Dewpoint
65 66 66 66 66 66 66 67 67 67 67 67 67 67 68 68 67 66 65 65 64 63 63 62 60 57 56 55 57 58 44 47
64 64 64 63 63 64 65 66 66 66 66 65 65 66 66 66 65 65 64 64 63 62 62 60 58 56 54 54 55 56 42 46
63 63 62 62 61 62 64 66 65 65 64 63 61 62 62 60 63 64 64 63 63 62 60 59 57 55 55 55 53 43 41 43
62 62 61 60 59 61 62 63 61 60 58 57 55 57 58 60 63 64 63 62 61 61 60 58 56 46 46 52 44 43 42 42
59 60 60 60 59 61 61 61 61 60 60 58 60 58 58 59 59 59 59 58 53 55 55 51 52 51 49 48 45 40 41 39
58 58 58 59 59 58 59 59 58 58 61 61 60 58 59 57 56 56 55 54 52 53 53 54 51 49 48 45 42 41 40 42
57 58 57 56 56 58 59 59 59 60 61 60 61 59 59 58 58 55 55 56 54 55 54 52 51 48 46 42 41 39 40 46
57 57 57 56 55 57 57 58 57 58 60 60 61 60 61 60 60 58 57 57 56 55 53 52 51 48 44 40 40 40 40 42
56 57 58 57 56 58 57 57 58 59 59 60 60 60 59 59 59 58 58 58 57 55 53 53 50 48 43 41 40 38 39 39
56 55 56 56 55 56 52 53 59 58 59 59 61 60 60 60 59 59 59 59 56 55 53 51 51 47 43 41 39 38 37 38
54 54 52 51 52 51 54 54 57 56 56 59 61 61 61 60 60 59 59 58 56 54 54 53 50 46 42 42 41 40 38 34
52 52 52 51 51 52 53 57 56 55 53 56 60 60 62 61 61 60 58 57 56 55 53 53 50 46 38 38 44 42 40 39
52 52 53 52 55 54 53 54 53 53 54 58 61 60 61 61 61 60 58 57 55 55 53 51 47 45 43 43 45 44 42 40
53 53 51 52 56 56 53 53 54 54 54 59 60 61 61 61 60 58 58 56 56 55 53 50 48 48 44 44 41 43 42 42
55 55 54 56 57 56 54 52 52 53 53 56 59 60 59 60 60 58 58 57 55 55 54 51 47 49 45 44 42 41 40 42
55 55 55 56 58 56 54 51 48 51 52 56 57 60 60 59 58 59 58 57 55 55 53 51 50 47 46 44 44 42 38 38
55 55 55 56 58 58 57 53 52 51 55 55 58 60 60 60 58 58 57 56 55 54 52 51 51 48 46 45 42 41 42 40
56 55 54 55 58 58 58 57 54 53 54 56 59 59 59 59 57 58 57 56 56 55 54 52 50 48 43 41 42 42 41 41
55 55 54 55 56 57 57 59 58 55 55 56 58 58 58 58 58 57 56 55 54 53 53 50 48 45 44 46 44 42 41 40
54 54 54 54 55 57 59 58 60 60 58 56 58 58 58 58 58 57 55 54 53 52 49 47 48 48 47 43 43 43 43 43

GFSFLT2_sfc_dewp_060.txt.gz
Dewpoint
67 67 67 67 66 65 65 67 68 68 68 67 67 66 66 66 65 65 64 63 62 60 60 60 59 59 61 60 59 58 53 53
66 66 66 64 64 64 64 66 67 68 68 67 66 66 66 65 65 64 63 62 61 60 58 58 58 58 59 59 59 57 53 53
65 64 64 64 64 65 65 67 67 67 66 66 65 65 64 62 63 63 63 62 60 59 59 57 55 57 57 56 53 51 53 55
62 61 61 62 63 64 65 65 65 65 63 64 63 63 62 62 63 63 62 61 60 59 58 56 52 45 46 50 45 48 52 55
60 60 60 60 62 63 63 62 62 61 61 60 62 62 61 61 60 59 59 59 56 54 50 49 48 45 41 41 41 43 46 52
60 59 60 60 61 60 61 60 59 59 59 60 60 59 58 58 57 57 55 53 52 51 50 50 47 43 40 39 39 38 41 46
58 58 58 59 59 59 59 59 60 60 58 58 57 56 56 56 55 54 52 52 50 50 52 48 46 45 41 38 39 38 37 42
58 57 58 58 58 58 58 59 60 60 59 59 56 56 55 55 54 53 52 53 50 52 51 48 47 41 39 38 39 41 43 41
56 57 57 57 56 57 57 58 59 59 60 59 57 55 54 55 55 54 53 54 52 53 52 49 47 43 39 38 38 41 45 42
56 57 56 56 56 56 54 56 57 57 58 59 58 57 56 57 58 57 56 55 54 53 52 50 48 44 40 39 38 38 40 43
55 55 55 54 54 54 55 56 55 55 56 56 57 57 59 58 58 58 57 57 55 53 52 50 49 45 41 39 39 38 37 40
54 54 53 53 54 54 54 54 55 55 55 54 57 58 59 58 58 57 58 57 54 52 51 51 50 48 42 40 39 39 38 38
54 52 53 54 53 53 52 52 53 54 54 54 56 58 59 59 58 59 58 57 54 52 51 50 50 47 41 40 41 41 39 38
53 53 52 53 52 51 50 51 51 50 54 55 54 58 59 59 59 58 57 56 54 53 52 50 50 46 42 42 40 42 42 40
53 52 52 52 51 49 50 51 52 50 51 52 55 56 57 58 59 58 57 56 54 53 52 50 48 47 43 43 40 39 41 41
52 51 50 50 49 48 48 48 47 47 48 49 52 58 58 58 58 59 58 57 55 54 54 51 49 47 47 45 44 42 38 38
50 50 49 49 48 48 49 49 48 49 51 53 53 56 59 59 58 59 58 57 56 55 54 53 51 50 49 46 46 43 42 40
48 48 50 48 48 49 51 51 51 50 50 52 53 54 57 58 59 59 58 57 56 56 56 54 52 52 51 50 47 44 43 44
50 48 50 48 48 49 53 53 53 54 50 50 52 54 56 57 58 58 58 57 57 57 56 53 52 51 51 49 48 47 46 44
50 50 50 49 48 48 50 54 55 56 55 52 52 54 55 57 58 58 58 57 57 56 54 53 52 51 49 48 45 46 46 46

GFSFLT2_sfc_dewp_063.txt.gz
Dewpoint
66 66 67 67 66 65 65 65 66 66 67 66 66 66 65 65 64 63 62 61 60 60 61 62 62 61 61 60 59 57 53 53
66 65 65 64 64 63 63 63 65 65 67 66 66 65 65 64 63 62 61 60 60 60 60 61 62 61 60 60 59 57 53 53
65 65 64 63 62 61 61 63 63 65 65 66 64 64 63 61 62 61 61 60 61 59 58 61 61 61 60 59 56 53 54 54
64 63 62 61 61 61 60 60 61 62 63 64 64 62 61 60 61 61 61 60 60 59 58 55 51 51 54 54 51 53 54 55
61 62 62 61 61 60 59 59 61 63 63 63 62 61 61 59 58 57 56 56 51 49 50 47 43 44 43 46 49 52 53 56
60 61 61 61 62 61 62 62 63 63 62 62 61 59 58 58 56 56 54 53 50 49 51 47 43 41 41 42 43 46 51 54
59 60 60 61 61 61 61 61 61 61 61 62 60 57 56 55 55 53 52 51 50 50 49 46 43 40 39 39 37 39 44 50
59 59 59 60 60 60 59 60 60 60 60 60 57 56 55 54 53 52 51 49 50 52 49 46 45 41 38 39 39 36 37 42
57 58 59 58 58 59 59 60 60 59 59 57 56 55 54 53 52 52 51 52 50 52 50 48 43 39 38 39 41 43 40 39
57 58 58 57 57 57 58 58 59 59 59 57 55 55 54 54 54 54 53 53 52 52 51 49 46 42 39 38 39 42 43 40
57 57 56 56 56 56 56 56 55 57 57 57 56 56 56 55 55 55 54 55 54 53 52 50 48 45 41 39 38 39 41 42
55 55 56 55 55 55 55 56 55 54 54 56 57 57 57 57 57 57 57 56 55 53 51 50 49 46 41 39 39 39 38 40
54 54 53 53 53 53 53 54 54 54 53 54 57 57 59 58 57 57 57 57 55 53 51 50 50 48 42 40 40 39 39 38
53 52 53 53 52 52 51 52 53 52 54 55 55 57 57 58 58 57 57 56 54 52 51 50 50 46 43 41 38 40 43 41
52 52 53 53 52 51 50 50 51 50 50 53 54 55 57 58 58 58 57 56 55 53 52 51 50 49 44 44 40 39 40 41
52 53 52 52 52 50 49 48 48 49 49 50 51 55 55 57 58 58 57 57 55 54 54 52 52 49 48 44 44 42 40 39
52 52 52 51 52 50 50 49 49 49 48 48 49 52 56 57 57 57 57 57 57 55 54 53 53 52 51 47 47 46 44 42
52 52 51 51 51 50 49 49 48 48 48 49 50 52 53 56 57 57 57 57 57 56 56 55 54 53 51 50 48 46 45 43
51 51 51 50 50 50 48 49 49 49 48 49 49 51 53 54 56 57 57 57 57 57 56 56 54 53 51 51 50 49 48 46
50 49 50 50 49 49 49 48 50 51 51 50 51 51 52 53 55 57 57 57 56 56 56 55 53 53 51 50 49 49 47 46

GFSFLT2_sfc_dewp_069.txt.gz
Dewpoint
66 66 66 67 67 66 66 67 67 67 66 66 66 66 66 65 64 64 66 66 65 64 63 62 62 61 61 60 59 59 54 53
65 66 66 67 67 65 65 65 65 65 66 65 65 65 65 64 63 65 66 65 64 63 62 62 61 61 60 60 60 59 53 53
66 65 64 64 65 65 64 64 64 63 64 65 64 64 63 59 61 65 65 64 63 62 62 61 61 61 60 60 58 53 53 52
64 64 63 63 63 62 61 61 60 61 63 64 63 63 60 57 61 63 64 63 62 62 61 61 57 54 56 57 53 54 53 53
62 63 63 62 62 62 62 62 61 62 62 63 62 59 59 58 58 59 61 62 58 58 58 53 54 53 53 54 55 54 53 53
62 62 62 62 62 61 63 61 61 62 63 63 60 58 57 57 54 54 56 58 59 58 54 54 54 53 53 55 54 53 54 53
61 61 61 60 60 60 61 60 59 61 62 61 57 55 54 54 54 51 51 53 54 53 53 51 52 52 53 53 54 54 55 53
60 61 60 59 59 59 60 61 61 62 62 61 59 56 56 53 52 51 50 50 50 49 49 48 48 49 51 52 53 54 55 55
60 61 61 59 59 59 60 61 61 61 61 61 58 57 57 55 52 51 52 51 49 48 47 46 44 43 44 47 49 52 54 55
60 60 60 60 59 60 61 62 61 62 62 60 58 57 57 55 52 52 53 53 50 47 46 43 43 42 42 41 41 43 48 53
59 59 59 60 60 61 60 61 61 61 60 59 58 56 57 54 53 53 55 55 53 51 49 47 44 42 42 43 43 43 45 39
58 58 58 59 59 59 59 60 61 60 60 59 57 56 55 56 56 55 55 55 54 53 52 51 48 45 38 40 43 43 45 45
57 57 57 57 57 58 57 56 57 59 59 58 56 56 55 56 56 56 57 55 55 56 55 54 52 50 46 46 45 45 44 42
56 56 56 56 57 56 56 57 57 57 58 58 57 56 56 56 56 56 55 57 57 56 56 54 55 52 51 48 47 47 45 43
54 56 55 55 56 55 56 55 56 56 56 57 57 57 57 57 57 58 58 58 58 58 57 56 54 53 52 51 47 47 47 46
55 55 54 55 55 54 55 53 53 54 55 56 57 58 58 58 58 59 59 59 59 58 59 57 56 54 52 50 50 48 48 47
55 55 54 54 54 54 54 54 54 54 53 54 55 56 57 57 58 59 59 58 59 59 58 57 56 56 54 52 51 50 49 47
54 53 53 54 53 53 53 54 54 51 51 52 52 54 55 56 56 58 59 58 59 59 59 58 58 57 56 56 53 51 49 48
52 52 52 54 54 53 53 53 54 53 51 51 51 51 51 54 56 57 57 57 58 58 58 58 58 58 57 56 55 53 52 51
52 51 51 52 54 53 52 53 52 52 53 51 51 52 52 53 55 55 56 56 57 58 58 59 59 59 58 58 55 54 54 53

GFSFLT2_sfc_dewp_072.txt.gz
Dewpoint
67 66 66 67 67 66 66 68 68 67 67 67 67 67 66 67 66 66 66 66 65 63 63 63 62 61 61 61 60 61 51 51
66 66 65 65 67 66 66 65 67 67 67 66 66 66 65 65 65 67 67 65 64 63 63 62 62 61 61 60 59 59 51 50
66 67 67 67 67 65 65 65 66 66 65 65 64 63 61 61 63 66 65 64 63 63 63 62 61 61 60 60 59 50 51 50
65 66 66 65 65 65 64 64 65 64 63 63 63 64 61 56 63 65 64 63 62 62 62 61 57 53 54 57 49 51 50 51
65 64 64 63 63 62 62 62 62 63 63 63 63 63 59 60 63 62 60 60 54 56 56 51 51 51 51 51 53 51 50 51
63 63 63 63 63 61 61 60 60 61 62 62 63 60 59 60 59 59 57 55 55 53 51 52 52 51 51 53 52 51 50 51
63 64 63 62 63 63 61 60 59 61 62 61 61 58 57 56 58 57 56 56 56 53 52 51 51 50 51 52 52 52 53 50
62 62 62 62 62 61 61 60 59 61 62 60 61 58 57 53 55 55 56 56 55 52 50 49 48 48 50 50 51 52 53 53
61 61 60 60 60 61 61 61 61 61 61 60 58 56 55 56 53 51 52 53 53 51 51 48 46 46 48 49 50 52 51 53
60 61 60 60 60 60 61 61 62 61 61 60 56 55 56 55 51 50 51 52 49 49 47 46 45 44 45 45 46 49 51 52
60 61 60 60 60 60 61 61 61 61 61 60 57 55 56 52 50 51 54 49 48 49 48 47 45 43 42 42 42 42 47 47
59 60 60 59 60 60 60 61 61 61 61 59 57 54 55 52 51 55 55 51 51 50 51 49 48 45 40 42 45 45 44 43
58 58 59 59 59 58 58 59 59 60 60 60 58 55 53 53 51 54 56 54 54 55 54 54 50 50 47 47 46 48 47 45
57 58 58 58 58 58 59 58 60 60 60 59 58 57 53 55 55 56 56 55 56 57 56 54 54 56 51 51 49 49 48 47
55 57 58 58 59 59 58 58 58 58 59 58 58 57 55 55 56 56 57 56 55 57 57 56 55 56 55 53 50 48 52 50
55 55 56 57 58 56 56 55 54 56 56 57 58 57 56 55 56 56 57 58 56 58 58 57 57 57 55 54 55 53 49 49
55 55 56 56 56 56 55 54 54 56 57 57 57 58 58 56 57 58 57 57 59 60 59 58 57 57 57 55 54 53 53 51
56 55 55 55 56 56 56 55 54 54 55 56 56 57 57 58 56 58 58 59 59 59 60 60 59 58 56 57 55 53 52 52
54 53 53 55 56 56 56 56 56 55 55 55 55 55 55 55 57 57 56 56 57 58 57 59 57 58 57 56 57 56 56 55
53 52 52 53 55 55 55 55 56 55 55 54 55 54 54 56 57 56 56 55 56 58 57 56 57 58 58 58 56 57 58 56

GFSFLT2_sfc_dewp_075.txt.gz
Dewpoint
68 68 66 66 66 64 63 67 67 68 68 68 68 67 66 66 66 67 66 65 65 65 64 64 63 62 61 61 59 60 50 50
68 68 66 65 67 66 66 67 67 66 67 67 66 66 66 66 66 66 66 65 64 64 64 63 62 61 60 60 58 59 50 49
66 67 66 67 66 66 66 65 66 66 66 66 64 64 64 64 64 65 65 64 64 64 63 62 61 61 60 59 60 49 49 50
66 66 66 66 66 65 65 65 66 66 65 63 64 62 64 63 65 64 64 63 63 63 62 61 57 51 52 57 52 50 49 51
63 65 66 66 65 66 66 65 65 65 63 62 63 63 62 64 65 62 61 59 55 56 57 51 51 49 51 52 51 51 50 51
63 62 63 63 63 63 64 65 64 62 62 62 63 63 61 64 62 59 55 52 54 52 51 53 52 50 51 52 52 49 50 52
63 63 63 62 61 61 61 61 62 62 62 62 63 62 61 61 61 58 54 54 53 52 51 51 51 51 51 52 51 51 52 51
63 64 63 63 62 61 61 60 60 61 61 62 62 61 59 60 60 58 56 56 53 51 51 50 49 49 51 51 52 52 52 52
63 63 64 62 62 62 61 59 60 61 61 61 61 59 59 60 59 57 56 57 57 54 51 49 47 47 49 50 50 52 52 52
61 62 62 62 62 61 60 59 59 61 61 61 59 58 58 59 56 57 57 58 54 50 48 47 46 46 48 48 48 50 52 53
60 61 61 60 61 61 61 60 60 60 61 60 59 57 57 56 54 54 58 55 54 51 50 48 46 46 45 46 47 47 50 49
60 61 60 60 60 61 60 60 60 60 60 59 57 56 57 55 53 56 55 52 51 50 52 49 48 46 40 42 45 45 47 49
58 59 60 60 59 59 59 58 59 60 60 58 58 54 55 55 53 56 55 52 52 55 52 53 50 50 46 47 48 50 50 46
58 59 59 59 58 59 59 58 59 59 60 58 56 57 54 54 55 55 56 53 56 57 57 54 53 54 48 49 48 49 50 51
56 58 59 58 59 59 59 59 59 59 59 59 58 57 55 53 54 57 58 57 57 58 58 57 56 55 57 57 53 50 55 52
56 57 59 59 59 58 58 56 56 57 57 58 58 58 57 53 55 57 59 58 57 59 59 58 58 56 54 54 57 57 53 52
55 56 57 58 59 59 57 56 56 58 58 57 56 57 57 56 56 57 57 57 58 59 59 58 58 57 57 58 54 54 56 53
55 56 56 57 57 58 58 58 57 56 57 57 55 57 57 57 55 56 57 57 56 58 59 59 59 59 56 58 55 54 52 53
54 54 54 56 57 58 58 57 57 55 57 56 56 55 56 56 56 55 54 54 56 56 58 59 57 56 56 55 55 55 56 55
53 52 52 54 56 57 57 57 56 56 56 55 56 55 55 57 56 55 53 54 56 56 56 57 57 58 58 58 54 56 57 56

GFSFLT2_sfc_dewp_078.txt.gz
Dewpoint
69 67 66 66 66 65 63 63 63 66 68 69 68 67 67 67 67 67 67 66 65 65 64 64 63 62 60 59 60 61 52 53
69 69 68 66 67 64 64 64 63 65 67 67 66 66 66 66 66 66 66 66 65 64 64 63 62 61 59 59 59 61 50 52
67 68 68 67 68 67 65 65 62 66 66 66 65 65 65 65 64 65 65 65 64 64 63 62 61 59 59 59 60 51 52 53
66 66 67 66 66 66 65 65 65 65 66 65 65 64 64 64 64 64 64 64 63 63 62 61 57 54 55 57 54 52 53 54
66 66 66 66 65 66 64 65 65 65 65 64 63 63 63 64 63 62 62 62 60 60 58 53 51 52 53 53 54 52 53 53
63 64 64 64 64 65 65 65 65 63 63 62 62 62 63 63 62 59 57 56 56 56 54 53 51 51 53 54 52 52 53 55
63 64 63 62 61 61 64 63 64 62 62 62 61 62 61 61 61 54 53 53 53 52 52 52 53 51 54 53 53 52 53 54
64 64 64 62 61 60 60 61 62 61 61 62 62 62 62 61 60 53 54 53 52 51 54 53 52 52 53 53 53 52 53 53
63 64 63 62 61 61 60 60 60 61 61 62 62 62 61 60 59 55 55 53 52 55 53 53 52 51 52 53 54 54 53 53
62 63 63 62 62 61 60 60 60 60 61 61 61 61 60 59 58 57 57 55 54 54 53 51 51 51 51 51 52 53 54 53
61 62 61 62 62 60 60 59 60 60 60 59 58 59 58 58 59 59 61 55 57 52 53 51 51 50 50 51 51 51 53 52
59 61 60 60 61 60 59 59 60 60 60 59 59 59 58 58 59 60 59 58 56 53 52 52 50 50 44 47 49 51 52 53
59 59 59 60 59 59 58 58 58 59 60 59 59 57 57 57 55 57 56 55 52 53 54 51 51 51 49 49 48 49 49 48
59 59 59 59 59 59 58 58 58 58 59 57 57 57 55 55 55 54 54 53 53 55 54 53 53 53 49 49 48 49 50 51
57 58 59 59 59 59 58 59 58 58 58 57 57 57 55 54 56 55 55 54 55 55 56 54 53 53 54 54 51 49 51 51
56 58 57 59 59 58 58 56 56 56 57 57 56 57 57 53 56 57 57 57 56 56 57 57 57 55 54 55 56 55 51 50
56 57 56 58 58 58 58 57 56 56 58 58 57 57 57 57 55 58 57 58 58 58 58 58 58 57 54 56 55 55 54 52
56 56 57 57 58 59 57 57 56 55 57 57 56 56 56 57 56 57 58 58 58 59 59 59 58 56 56 55 54 53 53 52
55 56 55 58 59 58 58 57 57 57 56 56 55 55 55 55 56 56 56 56 56 57 57 57 57 55 55 54 55 55 54 54
54 55 54 57 57 58 58 57 57 57 57 56 55 53 55 54 55 55 55 54 54 55 55 56 56 56 55 55 55 55 55 56

GFSFLT2_sfc_dewp_081.txt.gz
Dewpoint
65 65 66 66 65 65 64 64 64 62 61 64 68 68 68 68 67 68 67 66 66 65 65 64 64 62 61 59 61 59 55 56
66 66 65 65 64 64 64 63 63 62 61 63 67 67 67 67 67 66 66 66 65 65 64 64 63 61 59 61 59 59 54 55
64 66 66 64 64 64 64 64 63 63 63 64 66 66 66 65 65 65 65 65 64 64 64 62 61 59 60 59 57 54 55 55
64 64 64 65 66 64 64 64 62 62 63 66 66 65 64 64 65 65 65 64 64 63 62 61 57 53 54 56 53 54 54 55
64 64 64 64 64 64 64 64 63 62 64 65 65 64 64 64 63 63 62 63 61 59 57 54 52 52 52 52 53 54 54 55
64 64 63 64 63 63 62 64 63 63 64 64 63 63 63 63 62 61 61 59 57 56 53 52 50 51 52 54 53 54 55 55
62 63 62 61 60 60 62 63 64 63 63 63 62 62 62 62 61 59 57 57 55 53 53 50 50 50 51 52 53 54 54 55
62 62 61 60 60 60 62 62 63 63 62 61 61 62 63 61 57 54 54 54 51 52 53 51 50 51 52 52 53 54 54 55
61 61 61 59 59 60 60 62 62 62 62 61 61 62 62 59 53 53 52 53 49 51 53 53 52 52 51 53 53 53 54 55
62 63 61 60 59 59 60 61 61 61 61 61 61 62 61 59 52 54 52 54 50 53 53 51 51 51 51 52 52 53 53 54
61 61 61 61 60 59 59 60 60 61 61 61 60 61 61 60 55 56 55 55 52 53 52 50 50 50 50 50 51 53 53 53
60 60 61 61 60 59 59 59 60 60 60 60 60 59 59 59 59 60 58 57 55 52 50 51 50 50 48 49 50 52 53 53
59 59 60 60 59 58 57 58 59 59 58 58 58 58 58 57 59 59 59 57 53 51 51 50 48 49 48 47 46 48 50 51
57 58 59 60 59 58 58 58 58 58 58 56 58 57 56 55 57 58 56 54 53 52 51 52 49 51 47 47 44 46 48 48
58 57 59 59 59 59 58 58 58 58 58 57 57 57 56 55 55 56 54 54 52 52 52 51 51 52 48 51 49 46 48 49
58 58 58 58 59 58 57 57 56 57 57 55 56 57 56 54 55 54 54 54 52 53 53 51 54 51 53 55 54 53 49 49
57 58 58 58 58 58 57 57 56 56 57 55 55 56 56 54 55 56 54 56 56 55 55 56 56 53 51 53 53 53 53 50
56 57 57 58 58 58 57 57 56 56 56 56 55 56 55 55 55 56 55 57 57 56 57 57 57 55 54 54 52 52 52 51
56 55 55 58 57 58 58 57 56 55 56 55 55 55 54 55 56 57 56 57 58 58 58 57 57 56 55 54 55 54 54 53
54 55 56 55 57 57 57 57 57 56 56 56 55 55 54 52 55 56 56 57 57 57 57 57 56 56 55 55 54 55 55 55

GFSFLT2_sfc_dewp_084.txt.gz
Dewpoint
65 66 67 67 66 66 66 66 66 65 65 65 66 66 66 67 67 67 67 67 67 67 66 64 64 62 62 61 60 60 55 55
64 65 66 64 64 65 65 65 64 64 65 65 66 66 66 66 66 67 66 66 66 66 65 64 63 62 61 61 60 60 55 54
65 65 65 64 63 64 64 64 64 63 64 64 64 62 65 64 66 66 66 65 65 65 64 63 61 62 61 60 58 55 55 56
63 65 65 64 64 63 63 63 63 62 62 62 63 65 65 66 65 65 65 65 64 64 62 61 57 55 57 58 55 55 55 56
63 64 64 64 64 63 63 62 62 61 62 63 65 65 65 64 64 63 63 63 61 60 59 53 52 52 53 54 54 55 55 56
63 63 62 62 64 64 63 62 61 61 64 64 65 64 64 63 62 62 61 59 58 57 54 51 51 52 53 54 54 54 55 55
62 62 62 62 62 62 63 63 62 63 63 64 64 63 63 62 62 60 59 58 56 53 51 50 50 52 53 53 54 54 55 55
61 60 60 60 59 60 62 63 62 63 64 63 63 63 62 61 60 58 58 56 54 52 51 49 49 51 52 53 54 54 55 55
60 59 59 58 58 59 62 63 63 63 63 63 63 62 61 59 57 56 56 53 51 52 51 51 49 51 52 53 54 54 55 55
60 60 58 58 58 60 60 62 63 62 62 62 62 62 61 56 54 54 54 51 51 52 51 51 51 51 52 53 53 54 54 55
61 60 58 58 58 60 60 61 61 62 62 61 62 62 60 55 52 54 54 49 52 53 52 51 51 51 52 53 53 53 54 54
61 61 60 59 58 58 59 60 60 61 61 61 61 61 60 56 54 56 55 49 52 53 51 51 51 51 49 51 53 53 53 54
60 60 61 59 58 57 57 57 59 60 60 60 61 60 60 58 56 57 56 51 51 52 51 50 50 51 49 48 48 52 53 53
58 60 60 59 58 58 58 58 58 58 59 60 60 59 59 59 56 57 55 56 53 52 50 50 49 49 48 46 44 45 49 51
57 58 60 59 59 58 57 58 58 58 57 57 58 58 57 59 57 57 58 56 53 51 50 49 48 50 48 50 47 44 46 48
57 57 58 59 59 58 57 56 54 55 57 57 57 58 56 55 57 56 57 56 54 52 50 49 51 49 50 53 52 51 46 46
56 56 56 57 59 58 57 56 57 57 56 54 56 57 56 55 55 55 55 57 55 53 52 53 52 51 49 53 53 53 51 49
57 56 55 56 58 58 57 56 56 57 56 55 55 56 56 55 55 55 54 57 57 55 55 54 55 52 52 52 52 52 51 50
57 57 56 56 58 58 57 57 55 56 56 55 53 54 54 55 55 55 55 55 55 55 56 55 55 54 52 51 52 53 53 52
56 56 56 57 57 57 57 57 56 56 56 55 54 53 54 54 55 56 56 55 56 56 56 56 56 55 54 53 53 53 54 53

GFSFLT2_sfc_dewp_087.txt.gz
Dewpoint
67 67 68 68 68 67 66 67 66 66 65 65 66 65 66 66 66 66 67 67 67 67 67 65 65 64 63 62 61 60 56 56
64 65 66 66 65 66 66 65 66 66 66 65 66 66 65 66 65 65 66 67 67 66 65 63 64 63 62 61 61 60 54 55
63 65 65 65 63 64 65 65 65 65 65 66 64 63 65 64 65 63 65 66 66 65 63 62 63 62 61 61 59 55 54 55
63 63 64 64 64 62 61 63 63 62 63 64 65 64 65 64 64 64 65 65 65 64 62 62 61 59 59 58 55 55 55 56
62 63 64 63 63 62 62 63 63 61 61 61 62 62 64 65 65 65 64 64 62 60 57 55 57 57 55 55 55 55 56 56
61 62 64 64 63 62 61 61 61 61 62 61 61 63 63 63 64 64 62 61 59 58 53 52 54 54 54 54 55 55 56 56
61 61 61 62 63 63 62 61 61 61 63 62 62 63 63 64 63 62 60 59 57 55 51 51 52 53 54 54 54 55 55 56
61 61 61 61 62 62 63 62 61 61 63 63 63 64 63 62 61 60 59 58 56 53 50 51 52 53 54 54 54 55 55 55
61 60 59 59 59 61 62 63 62 62 63 63 63 63 63 61 60 58 57 56 54 53 50 50 52 53 53 54 54 55 55 55
60 60 57 56 58 59 61 63 62 62 63 63 63 63 62 60 58 57 56 54 53 52 50 50 52 53 53 54 54 54 54 55
60 58 56 57 58 58 60 61 62 62 62 63 63 62 60 58 56 55 53 52 52 51 51 50 52 52 53 53 54 54 54 54
60 58 57 57 58 59 60 60 61 62 62 62 62 61 59 56 56 55 53 51 52 52 50 51 51 52 52 52 53 54 54 54
59 59 58 57 57 57 58 58 60 60 61 61 62 61 58 56 56 55 52 49 51 52 51 50 51 51 50 49 50 53 53 53
58 58 57 57 56 56 57 58 59 59 60 61 62 61 58 56 56 54 51 48 52 52 50 50 50 51 50 47 47 49 51 52
57 58 58 57 57 57 58 57 58 58 58 59 60 61 60 58 58 55 54 49 52 52 51 50 49 50 50 50 46 46 48 50
58 58 57 57 58 57 57 56 56 57 57 58 59 58 60 59 57 58 56 56 53 52 51 50 51 49 49 51 50 49 47 46
57 58 57 57 57 57 57 56 56 56 57 57 58 58 58 58 58 58 57 56 54 53 52 51 52 51 48 52 52 52 51 48
56 56 57 57 57 58 57 56 55 56 56 56 56 57 57 56 57 56 56 56 55 54 54 52 52 52 51 51 51 51 51 50
56 55 54 56 58 58 57 56 56 55 55 54 55 55 55 55 55 56 55 57 57 56 55 54 54 52 51 50 52 53 53 52
55 55 54 54 55 56 57 57 56 56 56 55 54 54 55 55 54 55 55 55 56 56 55 55 55 54 52 51 51 52 53 53

GFSFLT2_sfc_dewp_090.txt.gz
Dewpoint
68 68 69 68 68 68 67 66 66 66 66 66 66 66 66 66 67 67 67 67 68 68 67 66 66 65 64 63 62 61 57 58
66 67 68 68 68 67 67 66 66 66 66 66 65 64 64 66 66 65 66 67 67 67 65 66 65 64 63 62 61 59 55 56
65 66 66 66 66 67 67 66 66 66 66 66 65 64 64 64 65 65 65 65 66 65 64 65 63 63 62 61 58 55 55 55
64 65 65 64 65 63 63 64 63 63 63 63 65 63 63 64 64 64 64 65 65 63 64 63 62 60 59 58 55 55 56 56
63 63 64 62 63 62 61 62 62 61 62 64 64 62 64 63 63 64 65 65 63 60 62 60 59 58 55 55 55 56 56 57
63 64 63 63 63 62 62 62 62 61 61 62 63 62 64 63 63 64 64 63 60 56 57 58 57 56 55 55 55 56 56 56
61 63 63 63 62 62 62 61 61 61 61 61 62 63 62 63 63 64 63 61 58 53 54 56 54 55 55 55 55 56 56 57
60 62 62 62 63 62 62 62 61 60 61 62 61 62 62 63 63 62 61 60 57 53 53 54 54 54 54 55 55 55 55 56
61 62 60 61 61 61 62 62 61 61 61 62 62 62 62 62 63 61 60 58 54 51 52 53 54 54 54 54 55 55 55 56
61 62 59 58 57 61 62 62 61 62 62 63 63 63 63 62 61 60 59 57 54 51 51 52 53 53 54 54 54 55 55 56
60 60 59 59 59 59 61 62 62 62 62 63 63 62 62 61 59 58 57 56 54 51 51 53 53 53 53 54 54 54 55 55
60 59 57 57 57 57 59 61 61 62 62 63 62 61 60 59 58 56 55 54 53 51 50 53 53 53 52 53 53 54 54 55
59 58 57 57 57 56 57 58 60 60 61 62 62 61 59 57 56 55 53 52 52 51 51 52 52 53 51 50 51 53 54 54
59 58 57 56 56 56 56 59 59 60 61 61 62 60 58 57 56 54 51 51 52 50 51 51 51 53 51 49 48 50 52 53
58 58 57 56 56 56 57 58 58 58 59 60 61 60 58 58 57 55 52 51 52 52 50 50 50 51 52 50 47 48 50 51
58 57 57 56 56 56 55 55 55 57 58 59 60 59 58 58 56 55 53 52 53 52 51 51 52 50 50 51 50 50 49 47
58 57 57 57 56 55 55 55 55 57 58 58 58 59 58 58 57 55 54 53 53 53 52 52 52 51 50 52 52 52 50 48
57 57 56 56 56 56 55 55 55 56 57 57 57 57 58 58 58 56 54 54 54 54 54 52 52 52 51 52 51 50 50 50
56 56 55 56 56 55 55 56 55 55 56 56 57 57 56 58 57 57 55 51 49 54 54 53 52 52 52 50 52 51 53 52
55 56 56 56 55 55 55 56 56 55 55 55 55 56 56 56 57 57 55 55 54 55 54 53 53 52 52 52 51 52 53 53

GFSFLT2_sfc_dewp_093.txt.gz
Dewpoint
68 69 69 69 68 68 68 68 68 68 68 68 67 67 67 67 67 67 67 67 68 68 68 67 66 66 65 63 63 63 61 60
67 69 70 70 70 67 67 67 67 67 67 66 65 65 65 65 65 66 66 66 68 68 67 66 66 64 63 62 62 61 59 59
67 68 69 70 69 68 67 66 66 66 66 66 64 63 63 64 64 64 66 65 66 67 66 65 64 63 62 61 60 58 58 57
66 67 68 68 68 68 67 66 66 66 66 66 66 65 65 63 64 65 65 64 65 66 65 64 62 61 59 59 57 57 57 56
64 65 66 68 66 67 66 66 66 65 65 66 66 66 66 65 66 67 66 64 65 65 64 62 61 60 58 58 58 58 56 56
64 64 64 66 65 66 65 64 64 64 65 66 66 65 65 64 63 65 66 65 63 64 63 61 61 59 58 58 58 57 56 55
64 64 64 64 63 64 64 64 64 64 64 64 65 64 64 64 64 65 64 62 61 62 60 60 59 58 58 57 57 57 57 55
64 63 65 64 63 63 63 63 63 62 63 62 65 64 64 65 64 64 64 61 60 61 59 59 58 57 57 57 57 57 57 57
63 64 64 63 63 62 63 63 63 62 62 63 63 64 64 64 63 63 63 62 59 60 59 58 57 56 56 57 56 56 56 57
62 63 62 63 63 63 62 62 63 63 63 63 63 62 63 62 62 62 61 58 57 57 56 56 56 56 55 55 54 55 56 57
62 62 61 62 62 62 63 62 62 63 63 63 63 63 62 62 62 61 60 58 57 56 56 56 55 55 54 55 55 54 56 55
62 62 61 62 62 60 62 63 63 63 63 63 63 62 62 62 61 60 60 58 56 56 56 56 55 55 52 53 55 55 55 56
61 60 60 59 58 58 59 60 61 62 63 63 62 61 60 59 59 59 60 58 55 56 55 56 55 55 54 54 55 56 56 55
60 59 59 59 58 58 57 58 60 60 62 62 62 60 59 59 58 57 57 56 54 54 55 54 54 55 53 52 51 52 54 55
59 59 59 58 58 57 58 59 59 60 61 61 61 60 59 58 58 57 56 55 53 54 55 55 53 54 55 52 51 49 52 53
59 59 58 58 57 57 57 56 56 57 59 60 60 60 59 58 56 54 54 55 54 53 53 55 55 53 54 52 54 53 50 50
59 59 58 57 56 56 56 55 55 57 58 59 60 60 59 58 57 55 54 54 54 53 53 55 55 54 53 53 53 53 54 52
59 59 58 57 56 56 56 55 55 57 58 58 58 58 58 58 57 56 54 54 55 55 54 54 55 55 54 54 52 51 51 51
58 57 56 57 56 56 56 56 57 57 57 58 58 57 57 57 57 56 55 54 53 53 54 53 55 54 55 54 53 52 52 52
57 57 56 56 56 56 56 56 57 57 57 57 57 57 57 58 57 56 55 53 52 52 54 53 54 55 54 53 53 54 53 53

GFSFLT2_sfc_dewp_096.txt.gz
Dewpoint
70 69 69 69 68 69 69 69 69 69 69 69 69 68 68 68 67 67 68 66 67 67 68 67 67 66 65 64 64 64 60 60
69 69 69 69 70 68 68 68 68 68 68 68 67 67 67 67 66 66 67 67 67 67 67 67 66 65 64 63 63 63 59 58
69 69 69 69 70 69 68 68 67 67 67 66 65 65 65 65 64 66 67 67 66 66 66 66 64 64 64 63 62 59 59 57
68 68 69 69 69 70 69 68 68 68 67 66 66 65 64 62 63 64 65 65 65 64 66 64 64 62 62 62 60 59 57 56
67 67 68 68 68 69 68 68 68 67 68 66 66 64 64 64 63 64 64 65 66 64 64 65 64 63 61 60 59 59 55 54
66 67 67 68 67 68 68 67 66 66 66 67 66 65 65 64 63 65 65 66 65 65 64 64 64 62 61 59 59 56 54 53
66 66 66 67 66 66 66 66 66 66 65 66 66 66 66 64 64 65 65 65 66 65 64 64 63 61 59 59 58 56 55 52
66 65 66 66 66 66 65 65 66 66 65 65 66 66 65 65 64 65 66 64 65 64 64 64 62 59 59 58 57 56 55 54
65 66 66 66 66 65 65 64 65 65 64 65 65 66 65 65 66 65 64 63 64 63 63 63 61 57 58 57 56 54 53 53
62 63 65 65 66 64 64 64 64 64 64 64 64 64 64 65 64 65 64 62 62 61 62 60 58 57 57 56 54 53 54 54
61 64 64 65 65 65 64 65 64 63 63 63 64 64 64 64 64 63 62 61 61 61 61 60 58 57 55 55 53 53 55 53
60 63 64 64 64 64 64 64 63 64 63 63 63 64 63 63 63 62 60 59 59 60 60 61 59 56 52 53 54 54 55 55
59 62 63 63 62 62 62 62 62 63 63 63 63 63 62 62 62 61 60 58 58 59 60 59 59 57 53 55 55 55 55 54
58 60 62 62 62 62 61 60 61 61 63 63 63 62 60 61 61 60 59 58 58 59 59 58 57 57 54 53 53 54 55 55
56 60 60 62 62 60 60 59 59 60 61 62 61 60 60 59 60 60 59 59 58 59 59 58 55 56 57 52 51 49 52 54
56 60 59 61 62 60 60 57 56 58 58 59 61 61 59 59 59 59 59 59 59 57 58 58 57 55 55 53 53 50 49 51
58 60 59 60 60 60 59 58 55 57 58 60 61 60 60 59 59 59 59 59 58 59 59 59 57 56 55 55 55 55 53 49
59 59 58 59 60 60 59 58 56 56 58 59 59 59 59 58 57 57 58 58 58 57 57 57 56 57 55 55 53 52 52 50
59 58 58 58 59 59 59 58 56 57 57 58 59 58 58 57 57 56 56 57 56 55 56 55 56 56 56 55 54 53 51 50
58 58 58 58 58 58 58 57 56 56 57 58 59 59 58 58 57 57 56 56 56 56 55 55 56 57 56 57 55 55 53 51

GFSFLT2_sfc_dewp_099.txt.gz
Dewpoint
69 68 68 69 69 69 70 70 70 70 70 69 70 69 68 69 69 68 68 68 68 67 66 67 67 66 65 65 64 65 61 62
69 69 68 68 69 68 69 69 69 69 68 68 68 68 68 68 67 68 67 67 67 66 66 67 67 66 64 64 64 63 61 60
69 69 68 68 69 69 69 68 68 68 68 67 67 68 66 66 65 67 67 66 66 66 66 65 65 65 64 63 63 61 61 60
68 69 68 68 68 70 69 68 67 67 67 68 69 67 66 63 64 66 67 66 66 66 64 65 65 65 66 63 60 61 60 60
66 68 68 67 66 68 67 67 67 67 68 68 67 64 68 67 66 62 62 64 63 63 64 65 64 64 64 62 61 61 58 58
66 67 68 68 65 66 66 66 67 67 67 68 68 67 67 66 63 65 67 68 63 64 65 64 63 64 62 63 61 57 51 58
66 66 67 68 66 65 67 66 67 67 66 67 67 65 66 66 65 66 67 65 66 66 64 64 63 63 63 60 57 55 54 57
65 66 67 67 65 66 67 67 65 67 66 66 68 67 67 65 65 65 66 64 65 64 63 63 63 63 62 59 56 54 53 54
65 67 67 68 66 65 65 64 64 64 65 67 66 66 66 65 66 66 65 66 64 64 63 63 62 63 59 57 55 55 53 52
61 64 66 66 66 64 63 63 64 62 64 66 66 66 66 64 65 65 66 65 65 63 63 62 62 62 58 54 53 52 52 52
57 64 66 66 66 65 65 65 64 63 62 64 65 65 65 66 65 66 66 64 63 63 62 62 61 60 55 55 53 50 51 48
53 61 65 66 65 64 64 64 64 64 63 62 62 64 64 64 65 64 64 63 62 62 61 61 61 58 52 54 54 56 55 53
53 60 64 65 64 62 63 63 63 63 63 62 62 63 64 64 63 62 61 60 60 61 61 59 59 61 56 56 57 57 57 55
48 56 61 64 63 62 62 62 62 62 62 61 61 62 64 63 62 61 60 60 59 60 60 59 60 59 55 54 53 54 56 56
44 52 58 64 64 62 61 61 61 61 62 61 62 63 64 62 62 61 60 60 59 59 60 59 58 59 57 54 51 49 53 55
48 50 55 63 63 61 61 58 59 59 59 58 62 62 60 60 60 61 60 59 59 59 61 59 59 56 57 55 55 52 50 52
51 52 55 62 62 61 60 59 58 57 57 59 61 61 60 59 59 60 59 59 59 59 59 60 59 57 56 55 55 53 53 51
52 54 59 61 61 61 61 60 58 55 56 59 61 60 59 59 60 59 59 59 59 60 61 60 59 58 57 56 54 53 52 52
50 55 59 60 61 61 61 60 58 56 57 58 60 59 59 58 59 59 59 60 59 59 59 59 60 59 58 57 56 55 54 52
51 56 58 59 60 60 60 60 57 55 57 58 59 59 59 58 58 57 57 58 59 58 58 57 58 58 57 58 57 57 55 53

GFSFLT2_sfc_dewp_102.txt.gz
Dewpoint
69 68 68 69 69 69 69 69 70 69 70 70 70 69 69 68 68 69 69 68 68 68 68 67 66 66 66 65 64 64 64 63
70 69 68 69 69 68 69 69 69 69 69 69 68 68 68 68 68 68 68 68 68 67 67 66 66 66 65 64 64 63 63 62
71 70 69 70 69 69 69 69 68 68 68 68 67 68 67 67 67 68 68 67 66 66 66 66 66 65 65 65 63 62 63 62
69 70 70 70 67 69 69 69 68 68 69 68 69 68 67 66 66 67 67 66 66 66 66 65 65 65 64 64 62 63 62 62
68 69 70 70 68 70 69 68 68 68 68 69 68 66 68 66 66 66 66 66 65 65 65 64 64 64 64 62 63 62 62 61
67 67 69 69 69 69 68 67 68 67 68 69 68 67 67 66 66 65 65 65 64 63 63 64 63 64 63 62 61 61 61 61
66 67 68 68 69 67 68 68 68 66 68 68 68 67 66 66 66 66 65 65 64 64 63 64 63 63 64 62 61 61 58 59
67 67 68 68 68 68 68 67 67 68 66 67 68 67 66 65 65 65 66 65 65 64 63 63 62 63 63 63 59 60 59 58
66 67 67 68 68 68 67 66 66 66 66 67 67 67 67 65 65 65 66 65 65 64 63 63 62 63 62 62 58 55 56 57
66 66 66 66 68 67 66 65 65 66 66 66 66 66 66 66 65 65 65 65 64 63 62 62 62 62 62 62 56 55 53 55
65 67 66 66 67 67 66 65 64 64 65 66 66 66 66 65 64 64 64 64 64 63 62 60 60 61 61 61 55 53 54 53
65 66 66 66 66 67 65 65 64 64 64 64 64 66 65 65 64 64 64 64 63 63 61 61 61 60 61 60 52 53 53 54
60 65 67 66 64 64 63 63 63 63 63 63 63 64 64 64 64 63 63 62 62 62 61 60 60 60 59 57 57 57 56 55
51 62 66 65 64 63 63 62 63 62 62 63 63 63 64 64 63 63 63 62 61 61 60 59 59 60 57 53 52 54 55 55
46 54 63 65 64 63 62 63 62 62 62 62 62 62 63 63 63 62 61 61 60 60 60 58 57 59 59 53 52 50 53 55
50 48 55 64 64 62 62 61 60 61 61 61 62 62 63 63 62 62 61 60 60 60 61 59 58 57 58 55 53 53 50 51
53 51 50 63 63 63 62 61 61 60 60 60 62 62 61 60 60 61 60 60 60 60 60 60 59 57 55 55 54 54 53 51
54 54 51 63 64 63 62 61 60 59 59 59 60 59 60 59 59 60 60 60 59 59 59 59 59 59 57 56 54 53 52 52
54 51 52 63 63 62 62 62 61 60 57 58 59 59 58 58 59 59 59 59 59 60 60 60 59 59 58 56 56 55 55 53
53 53 53 62 62 62 62 61 61 59 57 59 59 58 58 58 59 59 59 59 60 60 60 60 59 59 58 57 57 56 56 54

GFSFLT2_sfc_dewp_105.txt.gz
Dewpoint
67 68 69 69 69 69 69 69 69 69 70 70 70 69 69 68 69 69 68 67 67 67 66 66 67 67 66 65 64 64 65 65
67 67 67 67 67 68 68 68 69 69 69 69 68 68 68 68 68 69 67 67 67 68 67 66 65 65 65 64 64 64 64 64
67 67 67 67 67 68 68 69 68 68 68 68 67 68 68 67 67 68 67 67 67 67 66 65 65 64 64 64 64 63 64 63
68 67 67 68 68 67 66 67 66 66 67 67 67 67 67 67 67 67 67 67 67 66 66 65 64 63 64 64 63 63 62 63
68 68 68 68 68 67 67 67 66 66 66 67 67 66 66 66 66 66 66 65 64 65 64 63 63 63 63 62 63 63 63 63
67 67 67 67 69 68 67 67 66 66 66 66 65 65 65 64 65 65 64 64 63 64 63 62 62 62 62 62 62 63 62 61
66 67 67 67 68 68 67 66 66 66 66 66 66 65 65 64 64 65 64 64 64 63 63 62 62 62 63 64 62 63 61 62
66 66 66 67 67 66 66 67 66 65 66 66 65 65 65 64 64 64 65 64 64 63 63 62 62 62 62 63 63 62 61 60
65 66 66 67 66 65 65 65 65 65 64 66 65 65 64 64 64 63 64 64 63 63 63 62 61 62 62 63 62 62 60 60
65 66 66 66 66 66 65 64 65 65 65 65 65 65 64 64 63 63 64 63 63 62 63 62 61 61 61 62 62 61 59 59
65 66 65 65 66 66 65 64 64 65 65 65 65 65 64 64 64 64 64 63 63 62 61 61 60 60 61 62 62 60 57 57
65 65 65 65 66 65 64 64 63 63 65 65 65 65 64 64 62 62 62 62 62 62 61 61 60 60 61 61 61 59 55 56
65 65 65 64 64 64 63 63 62 62 63 64 65 65 64 64 63 62 61 61 62 62 61 59 59 60 59 59 58 57 54 55
65 65 65 64 64 64 63 63 63 62 62 62 63 64 64 63 62 62 62 62 61 61 61 60 59 60 58 56 53 54 55 54
63 65 65 64 63 63 62 62 62 62 61 61 62 62 62 62 61 62 62 62 62 62 61 60 58 60 58 54 51 49 52 55
49 63 65 64 63 62 61 60 60 60 60 61 61 62 61 62 61 61 61 62 61 61 61 60 59 58 59 59 54 54 50 50
51 52 59 64 63 62 61 60 60 61 61 61 61 60 61 61 62 61 61 60 61 61 61 60 60 58 58 57 54 53 53 52
48 49 52 61 63 62 61 60 60 60 60 59 59 60 60 60 60 60 61 60 60 60 61 60 59 59 58 57 55 52 51 51
44 46 48 51 62 62 61 61 60 59 59 59 59 59 59 59 59 58 58 60 60 60 60 60 60 59 58 57 57 56 55 53
41 43 46 49 60 62 61 60 60 59 59 60 59 58 58 58 58 58 59 60 59 60 60 60 60 59 58 58 58 57 56 54

GFSFLT2_sfc_dewp_108.txt.gz
Dewpoint
67 68 69 69 69 69 69 70 71 71 70 70 70 69 69 69 68 66 67 68 68 66 66 66 67 67 67 65 65 66 65 65
66 67 67 67 68 68 68 68 69 69 69 69 69 68 69 69 68 67 68 68 67 66 65 66 66 66 66 65 64 65 64 64
65 66 66 66 66 68 68 69 68 68 69 68 67 68 67 68 67 67 67 66 67 67 66 65 65 65 65 64 64 65 65 64
65 65 66 66 67 67 66 67 66 66 67 67 67 67 67 67 67 67 66 66 66 67 66 65 64 63 64 65 64 64 64 64
66 66 66 66 66 66 66 65 64 65 65 66 66 66 67 67 67 67 66 66 66 65 64 63 62 62 63 62 63 63 63 64
67 66 67 67 67 66 66 65 65 64 65 66 65 65 65 65 66 66 65 64 63 63 62 61 61 61 62 62 63 63 63 64
67 67 67 67 67 66 66 66 65 65 65 66 65 65 64 64 65 65 65 64 63 62 61 61 61 61 61 62 61 63 63 64
67 67 67 67 67 67 66 66 66 65 66 66 64 65 64 64 64 64 64 64 63 62 62 61 60 61 61 62 62 63 63 63
66 66 67 66 67 67 66 66 65 65 66 65 64 65 64 63 63 63 63 64 63 62 61 61 60 61 60 62 62 62 62 62
66 66 66 66 67 66 66 66 65 65 65 65 64 64 64 64 63 63 63 63 63 62 62 62 61 61 60 60 61 62 61 62
65 66 65 66 66 66 65 65 65 65 64 64 65 64 64 64 63 63 63 62 62 62 62 62 61 61 60 60 61 61 61 62
64 65 65 66 65 65 64 64 64 65 64 64 65 65 64 63 63 62 62 62 62 62 62 62 60 60 60 61 60 60 60 61
63 64 65 65 65 64 63 62 63 64 64 64 64 65 64 63 63 62 62 61 62 62 61 60 59 60 60 59 59 58 58 59
63 64 65 65 65 65 64 63 63 63 64 64 64 64 64 64 63 62 61 60 61 61 60 60 59 60 58 58 55 55 56 58
63 63 64 64 64 64 62 62 61 61 61 62 63 64 63 63 63 62 61 61 61 61 61 59 58 60 59 56 52 51 54 55
50 63 64 64 62 64 62 62 61 61 61 61 62 63 63 62 62 61 61 62 62 62 62 61 58 57 58 58 54 53 51 51
47 47 54 57 63 63 62 61 61 60 60 60 61 62 62 62 61 61 61 62 62 61 61 61 60 58 58 57 55 53 53 52
43 44 46 49 54 63 62 61 60 60 60 59 60 60 61 62 61 61 61 61 60 60 61 60 60 59 59 58 55 52 51 51
41 42 43 45 47 53 62 61 60 60 60 60 60 60 60 61 61 61 61 61 60 60 60 61 60 60 59 58 56 54 53 53
39 40 42 44 46 48 60 62 61 60 60 60 60 59 60 59 59 59 59 59 60 60 60 60 60 60 59 58 57 56 55 55

GFSFLT2_sfc_dewp_111.txt.gz
Dewpoint
68 68 69 69 69 69 69 70 70 70 70 70 70 70 69 69 69 69 69 68 68 68 68 68 68 67 67 66 65 66 65 65
67 67 67 67 68 68 69 69 69 69 69 69 68 69 69 68 68 68 68 68 68 67 66 67 67 67 66 65 65 66 65 65
66 66 66 66 66 68 69 69 69 69 69 68 67 68 68 67 65 67 67 67 66 66 65 65 66 66 65 64 65 65 64 64
65 66 66 65 67 66 66 68 67 68 68 68 67 67 67 67 66 66 66 66 66 66 65 65 64 63 64 64 65 65 64 64
64 65 65 65 66 66 65 65 65 65 66 67 66 66 67 67 66 65 65 65 64 65 64 62 61 61 63 62 63 64 65 65
64 65 65 65 66 66 65 65 63 64 65 66 66 65 65 66 66 66 65 65 64 63 62 61 61 61 61 61 63 63 63 65
64 64 65 66 65 65 65 64 64 64 65 65 66 65 65 65 65 65 65 64 62 61 60 60 60 60 60 61 62 63 63 64
65 65 65 66 65 65 65 65 64 64 65 65 65 65 64 65 64 64 64 63 62 61 61 60 59 60 61 61 61 62 63 63
66 66 66 66 66 65 65 65 65 64 65 65 64 64 64 64 64 63 63 63 61 60 60 60 59 60 59 61 61 61 62 63
66 67 66 66 66 66 66 66 65 65 65 65 64 64 63 63 63 63 62 63 62 61 61 60 61 60 58 59 60 61 61 63
66 66 66 66 67 67 66 65 65 65 65 65 64 64 63 63 63 62 62 62 62 61 61 60 60 60 60 60 60 60 61 62
65 66 66 66 66 65 63 65 65 64 65 65 64 64 63 63 62 62 62 62 61 61 61 61 61 59 61 61 61 59 60 61
64 65 65 65 65 64 64 64 64 64 64 64 64 64 63 63 62 61 61 61 61 61 61 61 61 60 59 59 59 59 60 61
59 64 65 65 65 64 64 64 63 64 64 63 64 64 63 63 62 61 61 61 61 61 61 60 60 60 58 58 54 56 58 59
58 62 64 65 64 64 62 62 61 60 63 64 63 63 64 63 62 62 61 62 61 61 60 60 59 59 59 56 53 52 55 57
45 59 64 64 65 64 63 62 61 62 62 63 64 63 63 64 63 62 62 62 62 62 61 61 60 58 59 59 56 54 53 51
43 46 49 51 63 65 63 63 62 60 60 61 62 63 63 63 63 63 62 63 62 62 62 61 60 59 59 58 56 55 55 53
41 42 44 47 49 55 63 62 61 60 60 60 61 61 62 63 63 62 62 62 61 61 61 61 61 60 59 59 57 54 53 52
39 40 42 43 45 47 51 62 60 60 60 60 60 60 60 61 62 61 61 61 62 61 60 60 60 59 59 59 58 56 55 53
38 39 40 42 44 45 48 50 62 61 60 60 60 59 59 60 61 61 61 61 60 60 60 60 60 60 59 59 59 57 56 55

GFSFLT2_sfc_dewp_114.txt.gz
Dewpoint
69 69 70 70 69 70 69 70 70 70 70 70 71 70 69 69 69 69 69 69 69 69 69 68 68 68 67 66 66 66 66 66
67 68 68 68 69 69 69 69 69 69 69 69 69 69 69 69 68 69 69 68 69 68 68 68 67 67 66 66 65 66 65 65
66 66 68 67 67 69 69 69 69 68 69 68 67 68 68 68 67 68 68 67 67 67 67 66 66 66 66 65 65 65 65 65
65 66 66 66 67 68 68 69 69 69 68 68 67 68 67 66 65 66 67 66 66 65 64 65 65 64 64 65 64 64 65 64
64 65 66 66 66 67 67 68 68 68 67 67 66 67 67 65 64 65 64 66 64 64 63 62 62 63 63 63 64 64 65 65
64 64 65 65 66 66 66 66 65 66 66 66 66 66 66 66 65 64 64 63 62 63 62 61 60 62 62 62 63 63 64 65
63 64 64 65 65 64 65 65 65 64 65 66 66 66 65 66 66 64 64 64 63 61 61 60 60 60 61 61 62 63 63 64
63 63 64 65 64 64 64 64 63 63 65 66 65 65 65 65 65 65 64 64 61 61 61 60 59 60 60 61 61 62 63 63
63 63 63 64 64 64 64 64 63 63 64 65 65 64 64 64 64 64 64 63 61 60 59 59 59 60 59 60 61 61 62 63
64 63 64 64 64 64 64 64 64 63 64 65 64 64 64 64 64 63 64 63 61 60 60 60 59 60 59 59 60 61 62 63
65 65 64 64 65 65 64 64 64 63 64 64 64 63 63 63 64 63 63 63 62 61 61 59 59 60 60 59 59 60 61 63
65 66 65 65 65 65 65 65 64 64 64 64 64 64 63 63 62 62 63 62 62 61 61 61 59 60 60 60 61 60 61 61
64 65 65 65 65 64 63 63 63 64 64 64 63 63 63 63 62 61 62 62 61 61 60 60 60 60 59 59 60 60 60 61
56 64 65 65 65 64 64 64 64 64 64 64 64 63 63 63 63 62 62 62 61 61 61 60 60 61 58 57 55 56 59 61
50 61 64 65 65 65 62 63 63 63 63 63 63 63 63 63 63 62 62 62 61 61 61 60 59 59 59 57 54 53 55 57
44 52 61 64 65 64 63 63 62 63 63 64 64 63 64 63 63 62 62 62 62 62 62 61 60 58 59 59 57 55 54 51
42 46 47 50 54 64 64 63 63 61 62 63 63 64 64 64 63 63 62 62 62 62 61 61 61 60 59 58 58 56 56 53
40 43 44 46 49 51 60 63 62 61 61 62 62 63 63 63 63 63 63 62 62 62 62 61 61 61 60 59 58 56 54 54
39 40 42 43 46 48 50 53 62 61 61 61 61 62 62 62 63 62 63 63 62 62 61 61 61 61 60 59 59 58 57 55
37 39 40 42 44 46 48 50 52 62 61 61 61 61 61 62 62 62 61 62 62 62 61 61 61 61 60 60 59 59 59 57

GFSFLT2_sfc_dewp_117.txt.gz
Dewpoint
70 71 71 70 69 70 69 69 70 70 71 71 71 71 70 70 70 70 70 70 70 70 69 69 69 68 68 67 66 66 67 66
69 69 70 71 71 69 69 69 69 69 70 70 70 69 69 69 69 69 70 70 69 69 68 68 68 67 67 66 66 66 67 66
67 68 68 70 70 70 70 69 69 69 69 69 68 70 70 69 67 68 68 68 68 68 68 67 67 66 66 66 65 68 67 66
65 66 67 68 68 69 70 70 70 70 70 70 71 71 70 68 67 67 67 67 67 67 67 66 66 67 66 66 67 67 67 66
64 65 66 67 67 68 68 69 69 69 70 70 70 69 70 69 67 66 68 66 65 64 65 66 67 67 67 66 67 66 67 67
64 64 65 66 66 67 67 68 68 69 69 70 69 67 68 68 66 66 67 66 66 64 62 64 66 66 66 66 66 66 66 67
64 64 64 65 66 66 66 67 67 67 68 69 69 67 67 68 67 66 65 66 66 65 63 63 64 65 66 65 64 65 66 66
64 64 64 64 65 65 65 66 66 66 67 68 69 67 67 66 66 66 66 66 65 64 63 63 63 64 64 64 63 64 65 65
64 65 66 65 64 64 64 64 66 67 67 68 68 67 66 66 66 66 66 66 65 65 64 64 63 63 62 63 62 63 64 65
64 63 64 65 65 64 64 65 66 66 66 66 66 67 67 66 65 66 67 65 64 65 64 63 62 62 62 62 62 62 63 64
64 64 64 65 65 65 65 65 65 65 66 65 65 67 67 66 65 65 66 65 64 64 62 63 62 62 61 62 62 62 62 62
64 64 64 65 65 65 64 64 64 64 65 65 65 66 66 66 65 65 65 64 63 63 62 62 62 62 60 61 62 62 63 62
63 65 64 64 63 63 62 62 62 63 64 65 65 65 66 66 65 64 64 63 62 63 62 62 62 63 61 60 61 62 62 62
63 65 65 64 63 64 65 64 63 63 64 64 65 66 65 65 65 63 63 63 62 62 62 61 61 62 59 58 56 58 60 61
50 63 66 66 65 65 65 65 65 64 64 64 64 65 65 65 65 64 63 63 62 62 62 62 60 61 61 59 55 54 56 59
48 55 65 66 66 65 64 63 62 63 64 64 63 64 64 65 64 64 64 63 63 62 62 62 62 60 61 60 59 57 54 54
44 48 50 53 62 65 64 64 65 64 64 64 64 64 64 65 64 64 64 63 63 63 63 62 63 62 60 60 60 59 58 55
42 45 46 48 51 54 62 64 64 63 63 63 64 64 64 65 64 64 64 64 64 64 64 63 63 62 61 60 59 58 56 55
40 42 43 44 47 49 51 53 58 63 63 63 63 62 63 64 64 64 64 64 64 64 64 63 63 62 61 60 60 59 59 57
37 39 41 42 45 47 49 51 53 54 62 63 64 62 63 64 63 64 63 63 63 63 63 63 63 63 62 61 61 61 61 59

GFSFLT2_sfc_dewp_120.txt.gz
Dewpoint
70 71 71 70 70 70 69 70 70 71 71 71 71 71 70 70 71 71 71 71 71 70 70 69 69 69 68 67 66 67 66 65
71 71 71 71 71 69 69 69 69 70 70 70 70 70 70 70 70 70 71 70 70 70 69 69 69 68 67 67 66 66 66 66
70 70 70 70 70 70 70 69 69 69 70 70 69 68 70 69 67 69 70 69 69 69 68 68 67 67 67 66 66 67 67 67
67 69 69 70 68 70 70 69 68 69 69 70 69 68 68 66 67 68 68 68 68 68 68 67 67 65 66 66 66 67 67 67
65 66 68 68 68 68 68 68 66 68 70 69 69 69 70 67 67 66 67 67 66 66 67 65 64 63 63 64 67 66 66 67
63 66 67 67 66 67 66 67 68 68 68 70 70 70 69 67 65 65 66 65 64 64 63 64 64 64 64 64 65 65 64 67
61 64 65 66 68 65 66 67 68 68 69 70 69 68 68 67 66 65 66 64 64 64 63 63 63 64 63 63 63 64 64 67
59 63 65 66 66 66 66 67 68 68 68 69 70 68 68 66 65 65 65 64 64 64 63 62 61 62 63 63 62 63 64 64
53 63 66 65 66 65 65 66 67 67 68 69 70 69 68 68 67 65 64 65 66 66 64 62 62 61 61 62 62 63 63 64
37 58 64 65 66 64 64 65 66 67 68 68 69 69 68 68 66 66 67 67 66 64 63 62 62 61 60 60 60 60 61 62
35 51 63 65 65 64 65 66 66 64 64 67 68 68 68 67 66 66 69 67 66 65 64 63 61 61 60 60 60 59 60 59
36 41 63 64 65 64 62 62 63 62 63 64 66 68 67 67 67 67 67 66 66 65 64 63 62 61 58 59 61 60 60 61
41 41 58 64 62 61 60 60 61 61 62 64 66 67 67 67 66 66 66 65 64 65 64 63 63 63 62 61 62 62 62 62
47 47 50 62 62 61 60 61 60 60 61 63 65 66 67 66 66 66 65 65 65 64 63 63 63 64 61 60 58 59 61 62
48 54 51 61 63 63 61 61 61 61 61 61 64 66 66 66 66 65 65 65 64 64 63 63 62 63 62 59 57 52 53 58
49 55 61 63 65 63 62 61 60 62 61 62 63 65 65 65 65 66 65 64 64 64 63 63 63 61 62 61 60 56 52 54
46 50 52 55 65 65 63 63 62 63 63 63 64 65 65 65 65 65 64 65 65 65 63 63 64 62 61 61 60 59 58 55
43 47 48 51 55 61 65 64 64 64 64 64 64 65 65 65 65 65 65 64 64 64 64 64 64 63 62 61 60 59 58 57
41 42 44 49 52 53 56 58 61 65 64 64 64 64 64 64 65 65 65 65 64 65 64 64 64 64 64 63 62 60 59 58
39 40 41 44 47 50 52 53 54 55 58 60 64 64 64 65 65 65 65 65 65 66 66 65 65 65 64 64 62 61 61 59

GFSFLT2_sfc_dewp_123.txt.gz
Dewpoint
70 71 71 70 70 70 69 70 71 71 71 71 71 71 71 71 71 72 72 71 71 71 70 70 70 69 69 68 67 68 67 67
70 71 70 70 70 69 69 69 70 70 71 71 70 70 70 70 70 71 71 71 71 70 69 69 69 68 68 67 66 67 66 65
70 70 70 70 70 70 69 69 70 70 70 70 69 68 69 70 68 70 70 70 69 69 69 68 68 68 67 67 66 64 65 67
67 69 69 69 66 70 70 68 68 69 69 70 69 67 68 66 67 69 69 69 68 68 68 67 67 65 66 66 65 64 66 68
64 68 70 69 67 66 67 66 66 67 69 70 69 67 71 66 70 67 68 68 66 66 67 66 64 65 63 63 63 64 63 68
51 65 68 69 68 66 66 64 65 65 66 70 70 68 70 68 66 66 68 66 65 64 63 64 64 66 66 67 64 64 61 65
45 59 66 67 68 65 66 66 65 64 66 70 70 68 69 67 67 66 67 66 65 65 65 66 65 66 65 63 64 65 65 64
46 51 65 66 66 68 66 66 66 68 69 69 71 70 69 68 66 65 66 67 66 66 65 64 63 63 64 64 62 64 65 65
40 50 63 67 65 65 65 64 66 67 68 70 70 70 70 68 67 67 67 66 68 67 67 64 64 63 63 63 63 64 64 64
33 32 47 67 67 65 64 63 66 66 68 69 70 70 69 69 65 65 67 67 66 66 65 63 64 64 63 63 61 62 64 64
32 40 45 60 67 66 66 66 65 64 66 67 69 70 69 68 65 66 68 66 66 65 65 64 63 63 62 63 64 62 63 60
31 35 44 51 68 66 64 63 63 63 63 64 68 69 69 68 67 67 68 67 66 65 66 64 64 63 59 60 64 63 63 63
28 35 45 48 65 66 64 62 62 62 60 64 67 68 68 68 67 66 68 67 65 66 66 64 63 64 62 63 61 62 62 61
42 42 45 48 46 65 65 62 61 61 60 63 66 67 67 67 67 66 67 65 66 66 66 64 64 65 61 61 59 60 61 61
44 46 44 48 52 61 64 62 61 60 59 61 65 66 67 66 67 66 66 66 65 65 65 64 62 64 64 59 55 53 52 60
43 45 46 49 56 59 62 60 57 58 59 60 62 66 66 66 67 66 66 65 64 64 65 64 64 62 63 62 62 57 51 50
40 43 49 51 55 60 64 62 60 60 60 62 63 66 65 65 66 66 65 65 64 65 64 64 64 62 61 61 62 60 60 55
40 42 46 48 54 61 64 62 62 60 61 62 62 64 64 66 65 66 66 65 64 64 64 64 64 64 62 61 60 59 57 57
41 41 43 46 51 54 56 63 63 65 63 64 64 64 64 64 66 67 65 65 64 65 64 64 64 63 63 62 62 61 59 58
40 41 42 45 48 50 52 54 58 59 58 59 63 64 64 65 65 66 66 65 65 65 64 64 65 64 64 65 63 62 62 60

GFSFLT2_sfc_dewp_126.txt.gz
Dewpoint
73 71 70 70 70 70 70 71 71 71 72 72 72 71 71 71 72 71 72 71 71 70 70 69 69 69 69 68 67 68 67 67
72 72 70 70 71 69 69 70 70 71 71 71 70 70 70 71 71 71 71 71 71 70 69 69 69 68 68 67 67 67 67 66
72 71 71 71 70 70 69 70 70 70 71 70 69 70 70 70 69 70 71 70 70 69 69 68 68 68 68 67 67 67 65 67
70 72 71 71 68 71 70 69 69 71 71 71 71 70 70 68 68 69 69 69 69 68 68 68 67 67 67 66 67 66 66 67
49 71 70 69 70 71 70 69 68 69 70 71 71 69 69 67 69 69 69 68 68 68 67 67 67 65 66 66 65 64 66 66
44 57 71 70 69 69 70 68 68 68 69 70 69 69 69 68 69 68 68 68 67 66 66 66 65 66 65 65 65 65 66 66
43 50 69 69 69 67 68 68 67 67 68 69 69 68 69 68 68 67 67 67 67 65 65 65 65 65 66 64 64 65 65 67
40 42 54 68 68 67 68 67 67 69 67 68 69 69 69 68 67 67 67 67 67 65 64 64 65 64 63 63 61 64 64 67
40 46 49 59 68 67 67 67 67 66 69 69 69 70 69 67 67 67 66 67 66 66 66 65 65 64 63 63 63 63 63 64
37 35 41 48 64 67 65 64 66 67 68 69 69 69 69 69 67 67 67 67 66 66 65 64 64 64 63 63 62 62 63 63
39 43 45 49 52 67 66 65 66 67 66 66 69 69 69 68 67 67 68 66 65 65 65 65 63 63 62 63 62 63 63 62
46 46 45 50 49 62 66 66 65 66 66 66 67 69 68 67 67 67 67 66 65 65 65 65 64 63 60 60 62 62 62 62
44 46 48 43 38 58 63 64 64 65 64 66 67 67 68 67 66 67 67 66 65 65 65 64 64 64 61 61 61 61 62 62
41 42 43 45 47 47 59 63 64 64 63 64 67 67 67 66 65 66 66 65 66 65 64 64 64 64 61 60 57 59 61 61
39 40 41 43 46 47 48 54 63 63 62 62 67 67 67 67 65 64 65 64 65 64 63 63 62 63 63 60 56 54 57 60
38 39 40 41 45 47 52 53 54 61 62 61 65 67 67 67 66 65 63 65 63 64 63 63 62 62 63 62 61 60 55 55
37 38 39 42 44 49 50 51 54 59 62 60 63 66 66 66 65 65 64 64 64 63 63 63 63 62 62 60 61 61 61 58
35 38 39 42 45 48 51 53 54 56 61 59 61 65 65 65 65 65 65 63 63 63 63 64 62 63 62 61 60 58 59 58
35 36 38 42 44 48 52 54 58 59 61 59 60 63 65 64 64 65 65 64 63 64 64 63 63 62 62 62 61 61 60 58
33 35 37 41 44 48 49 51 55 56 55 59 62 64 64 65 64 64 65 64 64 64 63 64 63 63 62 62 62 62 62 60

GFSFLT2_sfc_dewp_129.txt.gz
Dewpoint
70 70 70 70 69 69 70 71 71 71 71 71 72 71 71 71 71 71 71 71 71 70 69 69 69 69 69 68 67 67 67 66
71 70 70 69 69 69 69 69 70 70 71 70 70 70 70 70 70 70 71 71 70 69 69 68 69 68 68 67 66 67 66 66
67 70 69 69 69 69 69 69 70 70 70 70 69 70 70 70 70 69 70 70 69 69 68 68 68 68 67 67 67 66 66 66
55 68 70 69 69 69 68 68 69 69 70 70 70 69 70 70 69 69 69 69 69 68 68 67 67 67 67 67 66 66 66 66
33 57 68 69 70 69 69 68 68 69 69 70 69 69 69 69 68 69 69 68 68 68 67 67 67 66 66 66 66 65 66 66
32 38 61 67 68 69 69 68 68 68 69 69 69 69 68 67 68 68 68 68 67 67 66 66 66 66 66 66 65 65 67 65
31 33 45 63 68 67 67 69 68 67 68 68 69 68 67 67 67 68 68 67 67 66 66 66 65 65 65 65 64 64 66 65
43 43 33 53 66 67 66 67 68 68 67 68 69 67 67 67 67 67 67 67 66 65 65 65 64 64 63 63 63 63 65 66
42 45 46 43 63 67 66 66 67 67 67 68 69 68 67 67 66 67 66 66 66 65 64 64 64 64 63 63 62 63 64 66
39 42 44 46 46 62 67 67 66 67 66 68 68 68 68 67 66 66 66 66 65 65 64 63 64 64 63 63 62 62 62 65
37 39 41 43 44 49 60 64 65 66 67 68 68 68 68 67 66 66 66 66 65 64 64 63 63 63 63 64 63 63 63 63
35 37 39 41 43 45 51 63 65 65 65 67 68 68 68 67 67 66 67 66 65 64 63 63 63 62 62 62 63 62 63 63
33 35 37 39 40 42 45 50 56 64 64 65 65 68 69 68 67 66 66 65 64 64 63 63 62 62 61 61 61 61 62 62
31 33 35 37 38 40 43 47 52 55 62 64 66 65 68 67 66 66 66 65 64 64 63 62 62 63 60 58 55 57 60 61
30 31 33 36 38 39 41 45 51 54 56 62 63 66 66 67 65 65 65 65 64 64 63 63 62 62 61 58 55 53 56 59
30 31 33 35 38 39 42 44 47 50 53 55 60 64 66 66 65 64 65 65 65 64 63 63 63 61 60 60 58 56 53 54
31 31 32 35 38 40 42 44 46 49 50 53 54 62 65 65 65 64 63 64 63 64 62 62 63 62 62 59 59 58 58 57
31 31 34 36 38 41 43 44 46 47 49 52 53 57 64 66 65 64 64 64 63 63 63 62 62 62 62 60 59 59 57 56
34 34 35 37 39 41 43 46 49 50 50 52 54 54 54 65 65 64 64 63 63 63 63 63 63 62 62 62 60 59 59 59
33 33 34 36 39 41 44 47 49 53 54 56 56 53 53 65 65 64 64 63 63 63 63 63 63 63 62 63 62 61 61 60

GFSFLT2_sfc_dewp_132.txt.gz
Dewpoint
69 69 70 69 69 69 69 70 71 71 71 71 71 71 71 71 71 71 71 71 70 70 69 69 69 69 68 67 67 67 66 63
69 68 69 69 68 68 69 69 69 70 70 70 70 70 70 70 70 70 70 70 70 69 69 68 68 68 67 67 66 67 66 65
58 69 69 68 68 69 69 69 69 69 70 69 69 70 70 70 69 69 70 70 69 69 68 68 67 67 67 66 66 66 66 65
34 48 65 68 69 68 68 68 69 70 70 70 70 69 69 70 69 68 69 69 68 68 67 67 67 66 66 66 66 66 65 65
43 44 47 58 68 69 67 67 67 68 69 69 69 69 69 69 69 69 69 68 68 67 67 67 66 65 65 65 65 65 65 65
40 44 45 45 47 66 68 67 67 67 69 69 69 69 68 68 68 68 68 68 67 67 66 66 66 65 65 65 65 65 65 64
38 40 43 44 46 47 62 68 68 67 67 69 70 69 68 67 67 68 68 68 67 66 65 66 65 65 65 65 65 65 66 64
36 38 39 42 44 45 47 61 68 67 67 67 69 69 68 67 67 67 67 67 67 66 65 65 65 65 64 65 64 64 65 65
35 36 38 39 41 43 45 50 61 67 67 67 68 69 68 67 67 67 67 67 66 65 65 64 63 64 64 63 64 64 65 65
32 34 35 37 39 42 45 48 51 62 66 67 68 68 67 67 66 66 67 66 66 65 64 64 63 63 63 63 63 63 64 65
30 31 33 36 37 40 42 44 49 60 65 66 66 68 67 67 66 66 66 66 65 65 64 64 63 63 63 64 64 62 63 65
29 30 32 34 36 38 39 42 47 49 54 64 64 65 67 67 67 66 66 66 65 65 64 63 63 63 62 63 62 63 64 64
28 30 30 31 33 34 37 38 42 45 52 54 62 64 64 66 66 66 66 65 65 64 63 62 61 61 62 61 61 62 63 63
29 29 30 30 32 33 36 38 41 45 46 52 58 60 63 65 66 65 66 65 65 64 63 61 62 62 60 60 58 58 60 62
29 30 30 31 32 34 35 38 42 44 47 51 55 59 62 64 65 66 65 65 64 63 63 62 60 61 60 58 55 54 55 58
30 30 30 32 32 33 34 35 37 41 46 49 50 53 57 61 64 65 65 65 64 64 63 62 61 60 59 60 56 56 54 53
30 31 31 32 33 35 35 37 39 40 44 46 48 50 54 56 57 64 65 65 65 64 63 62 62 61 61 60 59 58 57 54
30 32 32 33 36 38 38 39 39 40 42 45 47 50 53 56 55 55 65 65 65 64 63 63 62 62 62 61 59 57 56 56
31 32 32 32 35 37 39 41 43 45 45 46 48 49 52 56 57 56 57 64 65 65 64 63 62 61 62 61 61 60 59 57
32 33 33 33 35 36 39 41 43 45 47 48 49 52 53 53 52 52 59 60 64 63 63 63 62 61 61 62 61 61 61 59

GFSFLT2_sfc_dewp_135.txt.gz
Dewpoint
65 68 69 69 68 68 69 70 71 71 71 71 71 71 70 71 71 71 71 71 70 70 69 69 69 68 68 67 66 66 65 63
44 49 60 68 68 68 68 69 69 70 70 70 69 70 70 70 70 70 70 70 70 69 69 68 68 68 67 66 66 66 65 63
43 46 47 48 60 68 69 69 69 68 69 69 68 70 70 70 69 69 69 69 69 69 68 67 67 67 67 66 66 66 65 64
39 42 47 49 47 51 64 68 69 68 69 69 69 69 69 70 69 68 69 69 68 68 67 67 67 66 66 66 65 65 65 64
37 38 42 45 46 51 53 64 67 68 69 69 69 69 69 70 69 69 68 68 68 67 66 67 66 65 65 65 64 64 64 64
35 36 38 39 42 46 50 52 61 67 68 69 68 68 68 68 68 69 69 69 68 67 67 66 65 65 64 64 64 64 64 64
33 34 36 36 37 40 44 47 51 56 66 68 68 68 67 67 67 68 68 68 67 67 65 65 65 64 64 64 64 64 64 64
32 33 34 34 35 37 39 41 48 51 56 67 67 66 68 67 67 67 67 67 67 66 65 65 65 64 64 65 64 64 65 63
31 31 32 32 34 36 37 39 45 47 52 58 66 66 66 67 67 67 66 67 66 66 65 64 63 64 64 64 64 64 65 63
29 29 30 32 32 34 36 38 40 43 48 54 61 65 65 65 67 66 67 66 66 65 65 64 63 63 63 63 64 64 65 64
28 29 30 31 32 33 34 36 38 43 47 49 51 61 65 65 66 66 67 67 66 65 64 64 63 62 62 62 63 63 64 64
28 29 30 31 32 32 33 34 38 41 42 45 49 54 57 65 66 66 66 66 65 65 64 63 63 62 62 62 62 62 64 64
29 29 30 31 31 31 32 32 34 37 40 43 46 47 54 61 65 65 66 65 65 65 64 62 61 63 61 59 60 61 62 63
28 30 30 30 31 32 32 33 34 37 39 42 44 49 55 60 64 64 65 65 65 64 63 63 62 62 60 59 56 59 60 62
29 30 30 31 31 33 33 34 34 35 38 41 46 50 51 53 58 63 63 65 65 64 64 62 61 61 60 58 54 54 55 58
29 29 29 30 33 32 33 33 32 34 36 39 43 47 49 51 54 59 63 65 64 64 64 63 62 60 58 59 56 56 54 53
29 29 30 31 31 33 34 35 36 36 36 38 40 43 46 49 53 57 56 58 63 64 64 63 62 61 60 58 58 57 54 53
29 30 31 31 33 34 36 36 37 38 39 38 39 43 46 51 54 55 56 56 58 61 63 63 62 62 61 60 59 57 57 55
31 31 29 31 33 34 36 36 38 39 41 42 44 43 46 49 53 55 56 56 57 58 63 63 62 61 61 60 60 59 58 57
32 32 29 32 32 33 36 37 37 38 41 43 45 47 48 49 53 51 56 57 59 59 59 63 62 62 61 61 61 60 59 58